COMPLETED DISPATCHED CALLS FOR SERVICE

Welcome to the Jacksonville Sheriff’s Office Completed Dispatched Calls for Service webpage. This page displays calls for service made to the Jacksonville Sheriff's Office that have recently been completed. The data on this page is refreshed automatically.

This information is not intended to be used as official crime data. This program does not provide information about all crimes, and excludes specific incidents such as sexual assaults and child abuse.

Disclaimer: The Jacksonville Sheriff's Office makes every effort to produce and publish current and accurate information. No warranties, expressed or implied, are provided for the data herein, its use, or its interpretation. The services provided are for informational purposes only and should not be relied on for any type of legal action.

Last refreshed 9/22 23:50:44

Incident # Dispatched Block Address Signal Call Description  
170922649073 9-22 23:31 S LANE AVE AND PARK ST 16 ROAD OBSTRUCTION
170922649062 9-22 23:26 10300 AGAVE RD 12 RECKLESS DRIVER
170922649064 9-22 23:23 1400 MONUMENT RD 13 SUSPICIOUS PERSON
170922649060 9-22 23:21 SAN JOSE BLVD AND BAYMEADOWS RD 1050 TRAFFIC STOP
170922649039 9-22 23:19 W HICKORY CREEK BLVD AND MATTHEW UNGAR DR 98 THROWING MISSILES
170922649056 9-22 23:18 5300 ARLINGTON EXPY 54 ILLEGALLY PARKED CAR
170922649053 9-22 23:18 600 W U S 90 HWY 96 ASSIST MOTORIST
170922649049 9-22 23:13 W EDGEWOOD AVE AND MONCRIEF RD 1050 TRAFFIC STOP
170922649045 9-22 23:12 DUNN AVE AND WAKE FOREST AVE 1050 TRAFFIC STOP
170922648994 9-22 23:11 9700 OLD ST AUGUSTINE RD 9 THEFT
170922648958 9-22 23:11 2100 LOUISE ST 64 NOISE COMPLAINT
170922649041 9-22 23:11 S I295 EXPWY AND 103RD ST 1050 TRAFFIC STOP
170922649006 9-22 23:09 1900 ERLINE DR 63 DISPUTE
170922648929 9-22 23:07 1200 W 4TH ST 64 NOISE COMPLAINT
170922649033 9-22 23:07 MAX LEGGETT PKWY AND CITY CENTER BLVD 1050 TRAFFIC STOP
170922649021 9-22 23:07 100 WATTS ST 37 UNVERIFIED 911 CALL
170922649032 9-22 23:06 GRIFLET RD AND CAMELOT RD 12 RECKLESS DRIVER
170922648990 9-22 23:06 W 4TH ST AND N JEFFERSON ST 56 JUVENILE COMPLAINT
170922649027 9-22 23:02 N DAVIS ST AND W 8TH ST 1050 TRAFFIC STOP
170922649020 9-22 23:01 2800 ATLANTIC BLVD 1066 CANCEL
170922649010 9-22 23:01 N OCEAN ST AND E MONROE ST 1 IMPAIRED/DRUNK DRIVER
170922648967 9-22 22:58 4800 N MAIN ST 2 63 DISPUTE IMPAIRED/INTOXICATED
170922649013 9-22 22:57 SAN JOSE BLVD AND S I295 EXPWY 12 RECKLESS DRIVER
170922649001 9-22 22:56 600 BIRCH ST 33 DISCHARGING OF FIREARM
170922649012 9-22 22:55 6800 NORMANDY BLVD 1050 TRAFFIC STOP
170922649011 9-22 22:54 ARGY 1050 TRAFFIC STOP
170922649008 9-22 22:52 3100 N EDGEWOOD AVE 1050 TRAFFIC STOP
170922648996 9-22 22:52 3300 LOWELL AVE 37 UNVERIFIED 911 CALL
170922649000 9-22 22:46 3500 ERNEST ST 22 DOMESTIC
170922648998 9-22 22:45 10500 LEM TURNER RD 64 NOISE COMPLAINT
170922648978 9-22 22:43 6700 COLLINS RD 2 22 DOMESTIC DISTURBANCE
170922648991 9-22 22:43 4800 PARK ST 63 DISPUTE
170922648984 9-22 22:41 900 MONUMENT RD 64 NOISE COMPLAINT
170922648957 9-22 22:41 6900 S OLD MIDDLEBURG RD 64 NOISE COMPLAINT
170922648993 9-22 22:39 11400 N MAIN ST 1050 TRAFFIC STOP
170922648949 9-22 22:38 103RD ST AND KINKAID RD 80 PROSTITUTION (ONLY)
170922648965 9-22 22:37 14000 CITICARDS WAY 63 DISPUTE
170922648937 9-22 22:37 7200 POWERS AVE 2 63 DISPUTE IMPAIRED/INTOXICATED
170922648986 9-22 22:34 6300 LAKE PLANTATION DR 33 DISCHARGING OF FIREARM
170922648987 9-22 22:34 6700 103RD ST 76 ASSIST OTHER AGENCY
170922648980 9-22 22:31 2900 AMELLIA DR 26C CARDIAC AED
170922648935 9-22 22:30 4100 TOBIN DR 64 NOISE COMPLAINT
170922648974 9-22 22:28 4300 BLANDING BLVD 38 TRAFFIC ASSIGNMENT
170922648973 9-22 22:28 2500 MAYPORT RD 13 SUSPICIOUS PERSON
170922648970 9-22 22:26 BEACH BLVD AND N 4TH ST 76 ASSIST OTHER AGENCY
170922648955 9-22 22:25 S ST JOHNS BLUFF RD AND BEACH BLVD 96 ASSIST MOTORIST
170922648963 9-22 22:22 4100 PHILIPS HWY 3 53 HIT AND RUN CRASH W/FIRE
170922648875 9-22 22:20 9400 BAYMEADOWS RD 4 AUTO CRASH
170922648959 9-22 22:19 MONUMENT RD AND CANCUN DR 1050 TRAFFIC STOP
170922648956 9-22 22:18 5800 SAN JUAN AVE 22 DOMESTIC
170922648954 9-22 22:17 1900 W 25TH ST 20 PROWLER
170922648944 9-22 22:16 2500 MAYPORT RD 2 63 DISPUTE IMPAIRED/INTOXICATED
170922648948 9-22 22:15 1200 S LANE AVE 2 63 DISPUTE IMPAIRED/INTOXICATED
170922648906 9-22 22:15 2100 W SOFTWIND TRL 22 DOMESTIC
170922648890 9-22 22:13 1700 LEON RD 63 DISPUTE
170922648946 9-22 22:13 N PEARL ST AND W 26TH ST 1050 TRAFFIC STOP
170922648945 9-22 22:13 700 N LINCOLN CT 1050 TRAFFIC STOP
170922648861 9-22 22:12 2900 JUSTINA RD 2 63 DISPUTE IMPAIRED/INTOXICATED
170922648942 9-22 22:12 10200 MAGNOLIA RIDGE RD 2 22 DOMESTIC DISTURBANCE
170922648912 9-22 22:10 12200 ATLANTIC BLVD 2 22 DOMESTIC DISTURBANCE
170922648941 9-22 22:10 14700 BEACH BLVD 1050 TRAFFIC STOP
170922648933 9-22 22:10 7600 BLANDING BLVD 64 NOISE COMPLAINT
170922648940 9-22 22:09 PHIL/BA 1050 TRAFFIC STOP
170922648938 9-22 22:09 10100 PONTIAC DR 10R VEHICLE THEFT RECOVERY
170922648936 9-22 22:08 700 FERNWAY ST 64 NOISE COMPLAINT
170922648920 9-22 22:08 7000 COLLINS RD 0 13 ARMED SUSPICIOUS PERSON
170922648922 9-22 22:04 S LANE AVE AND NORMANDY BLVD 1050 TRAFFIC STOP
170922648894 9-22 22:04 E 10TH ST AND N LIBERTY ST 73 DRUG INVESTIGATION
170922648838 9-22 22:03 CARTHAGE DR AND HAVERFORD RD 2 IMPAIRED/INTOXICATED
170922648916 9-22 21:59 10900 BEACH BLVD 14R VANDALISM RESIDENCE
170922648915 9-22 21:58 HOLLYCREST DR AND CASSAT AVE 1050 TRAFFIC STOP
170922648866 9-22 21:57 2200 E WAHINE DR 64 NOISE COMPLAINT
170922648911 9-22 21:57 7900 NEW KINGS RD 13 SUSPICIOUS PERSON
170922648914 9-22 21:56 PHILLIPS INDUSTRIAL BLVD AND E PHILLIPS INDUSTRIAL BLVD 1050 TRAFFIC STOP
170922648913 9-22 21:55 W 13TH ST AND N CANAL ST 2 IMPAIRED/INTOXICATED
170922648908 9-22 21:54 N INDIES DR AND MINDANAO DR 76 ASSIST OTHER AGENCY
170922648896 9-22 21:54 CASSAT AVE AND SAN JUAN AVE 73 DRUG INVESTIGATION
170922648909 9-22 21:53 1900 S LANE AVE 13 SUSPICIOUS PERSON
170922648907 9-22 21:53 700 N LINCOLN CT 1050 TRAFFIC STOP
170922648899 9-22 21:52 6000 DAVON ST 63 DISPUTE
170922648903 9-22 21:51 500 E ADAMS ST 73 DRUG INVESTIGATION
170922648901 9-22 21:51 4200 JILLIAN DR 1066 CANCEL
170922648898 9-22 21:49 W 13TH ST AND PAYNE AVE 1050 TRAFFIC STOP
170922648895 9-22 21:46 1200 DENA ST 22 DOMESTIC
170922648879 9-22 21:45 3100 SEDONA TRL 37 UNVERIFIED 911 CALL
170922648893 9-22 21:43 LENOX AVE AND SUMMER ST 13 SUSPICIOUS PERSON
170922648886 9-22 21:43 6800 LILLIAN RD 63 DISPUTE
170922648892 9-22 21:41 ATLANTIC BLVD AND S ST JOHNS BLUFF RD 1050 TRAFFIC STOP
170922648891 9-22 21:41 4400 ATLANTIC BLVD 76 ASSIST OTHER AGENCY
170922648876 9-22 21:40 E 12TH ST AND BENNETT ST 13 SUSPICIOUS PERSON
170922648708 9-22 21:40 7700 BAYARD BLVD 22 DOMESTIC
170922648888 9-22 21:40 N 2ND AVE AND N 3RD ST 76 ASSIST OTHER AGENCY
170922648887 9-22 21:39 LENOX/LUNA 13 SUSPICIOUS PERSON
170922648884 9-22 21:39 CLYDE DR AND NASSAU RD 60 SUICIDE OR ATTEMPT
170922648588 9-22 21:38 7900 S CHATEAU DR 14 VANDALISM
170922648848 9-22 21:38 ROOSEVELT BLVD AND S MC DUFF AVE 38 TRAFFIC ASSIGNMENT
170922648881 9-22 21:38 5100 VERDIS ST 64 NOISE COMPLAINT
170922648833 9-22 21:37 1300 MUNSON COVE DR 33 DISCHARGING OF FIREARM
170922648883 9-22 21:37 W 12TH ST AND PAYNE AVE 1050 TRAFFIC STOP
170922648880 9-22 21:35 N I95 EXPWY AND MAIN STREET BRIDGE EXPWY 1050 TRAFFIC STOP
170922648878 9-22 21:33 N MYRTLE AVE AND W 19TH ST 1050 TRAFFIC STOP
170922648829 9-22 21:33 800 ESSEX ST 1066 CANCEL
170922648871 9-22 21:29 1100 E 14TH ST 1050 TRAFFIC STOP
170922648869 9-22 21:27 1400 E ADMAS ST 88 ASSAULT
170922648852 9-22 21:25 10100 PONTIAC DR 21R BURGLARY RESIDENCE
170922648862 9-22 21:25 3600 EDISON AVE 1050 TRAFFIC STOP
170922648857 9-22 21:23 S I95 EXPWY AND PARK ST 13 SUSPICIOUS PERSON
170922648607 9-22 21:23 700 SUMMERWOOD WAY 9 THEFT
170922648804 9-22 21:22 10500 JOES RD 1066 CANCEL
170922648847 9-22 21:22 5100 WESTCHASE CT 63 DISPUTE
170922648854 9-22 21:20 AIRPORT CENTER DR AND N MAIN ST 1050 TRAFFIC STOP
170922648841 9-22 21:18 5800 ATLANTIC BLVD 4 AUTO CRASH
170922648846 9-22 21:17 LENOX AVE AND HERMAN ST 1050 TRAFFIC STOP
170922648844 9-22 21:16 W 14TH ST AND GRUNTHAL ST 1050 TRAFFIC STOP
170922648832 9-22 21:16 1700 MOSELEY ST 64 NOISE COMPLAINT
170922648842 9-22 21:15 KINGS RD AND SPIRES AVE 1050 TRAFFIC STOP
170922648750 9-22 21:15 1200 MEMORIAL PARK RD 63 DISPUTE
170922648768 9-22 21:15 12300 HUNTERS HAVEN LN 63 DISPUTE
170922648840 9-22 21:15 1400 BLUE AVE 13 SUSPICIOUS PERSON
170922648839 9-22 21:14 7100 EDGE ST 76 ASSIST OTHER AGENCY
170922648837 9-22 21:14 5900 RAMONA BLVD 60 SUICIDE OR ATTEMPT
170922648824 9-22 21:12 ROOSEVELT BLVD AND S MC DUFF AVE 91 TRAFFIC LIGHT/RR CROSSING MALFUNCTION
170922648831 9-22 21:11 2000 E FOREST GATE DR 54 ILLEGALLY PARKED CAR
170922648809 9-22 21:08 6900 S OLD MIDDLEBURG RD 64 NOISE COMPLAINT
170922648702 9-22 21:08 9600 CROSSHILL BLVD 3 HIT AND RUN CRASH
170922648710 9-22 21:07 7000 PITTS RD 63 DISPUTE
170922648823 9-22 21:06 4200 BELFORT RD 1050 TRAFFIC STOP
170922648822 9-22 21:06 12000 VERSAILLES ST 22 DOMESTIC
170922648802 9-22 21:04 12200 S FRANKLIN BROOK LN 88 ASSAULT
170922648814 9-22 21:02 W 26TH ST AND N MYRTLE AVE 64 NOISE COMPLAINT
170922648813 9-22 21:01 100 N PEARL ST 63 DISPUTE
170922648784 9-22 21:01 2500 LANTANA AVE 63 DISPUTE
170922648803 9-22 21:01 1800 KINGS RD 63 DISPUTE
170922648816 9-22 21:00 N MYRTLE AVE AND W 7TH ST 1050 TRAFFIC STOP
170922648812 9-22 20:59 J TURNER BUTLER BLVD AND BELFORT RD 1050 TRAFFIC STOP
170922648797 9-22 20:58 ATLANTIC BLVD AND ARLINGTON EXPWY 88 ASSAULT
170922648806 9-22 20:58 3000 LORETTO RD 22 DOMESTIC
170922648799 9-22 20:55 8TH/EAVERSON 1050 TRAFFIC STOP
170922648795 9-22 20:55 BEACH BLVD AND S ST JOHNS BLUFF RD 4 53 TRAFFIC CRASH PERSON INJURED
170922648779 9-22 20:54 1200 GROTHE ST 73 DRUG INVESTIGATION
170922648792 9-22 20:53 HIGHWAY AVE AND CASSAT AVE 1050 TRAFFIC STOP
170922648791 9-22 20:52 W 13TH ST AND TYLER ST 1050 TRAFFIC STOP
170922648786 9-22 20:51 7500 ATLANTIC BLVD 2288 DOMESTIC DISPUTE WITH/ASSAULT
170922648790 9-22 20:51 W UNIVERSITY BLVD AND PHILIPS HWY 1050 TRAFFIC STOP
170922648789 9-22 20:51 ROOS/VERONA 1050 TRAFFIC STOP
170922648785 9-22 20:50 KINGS/DIV 1050 TRAFFIC STOP
170922648771 9-22 20:47 2300 EMERSON ST 13 SUSPICIOUS PERSON
170922648773 9-22 20:47 HAINES ST AND E 11TH ST 98 THROWING MISSILES
170922648778 9-22 20:47 J TURNER BUTLER BLVD AND SOUTHSIDE BLVD 1050 TRAFFIC STOP
170922648776 9-22 20:47 1000 UNIVERSITY BLVD 2 63 DISPUTE IMPAIRED/INTOXICATED
170922648758 9-22 20:46 7600 S DALEHURST DR 2 63 DISPUTE IMPAIRED/INTOXICATED
170922648774 9-22 20:46 5200 FREMONT ST 22 DOMESTIC
170922648775 9-22 20:45 9500 ARLINGTON EXPWY 1050 TRAFFIC STOP
170922648769 9-22 20:44 WITSCHEN AVE AND W 14TH ST 13 SUSPICIOUS PERSON
170922648748 9-22 20:40 S SR9B EXPWY AND PHILIPS HWY 96 ASSIST MOTORIST
170922648712 9-22 20:40 900 N PEARL ST 22 DOMESTIC
170922648718 9-22 20:39 10200 MANORVILLE DR 13 SUSPICIOUS PERSON
170922648668 9-22 20:39 300 SILVER CREEK CIR 63 DISPUTE
170922648660 9-22 20:39 1400 MOHAWK AVE 63 DISPUTE
170922648757 9-22 20:37 1000 HENDRICKS AVE 21B BURGLARY BUSINESS
170922648756 9-22 20:36 1900 S LANE AVE 63 DISPUTE
170922648727 9-22 20:36 11000 BEACH BLVD 63 DISPUTE
170922648752 9-22 20:35 6000 LAKE GRAY BLVD 63 DISPUTE
170922648741 9-22 20:35 ATLANTIC BLVD AND MONUMENT RD 4 AUTO CRASH
170922648749 9-22 20:33 2200 MERRILL AVE 22 DOMESTIC
170922648753 9-22 20:31 BLUE AVE AND GROTHE ST 1050 TRAFFIC STOP
170922648734 9-22 20:29 4100 HARBOR VIEW DR 64 NOISE COMPLAINT
170922648751 9-22 20:28 14000 NEW KINGS RD 1050 TRAFFIC STOP
170922648743 9-22 20:27 ATLANTIC BLVD AND UNIVERSITY BLVD 16 ROAD OBSTRUCTION
170922648747 9-22 20:27 SUPERIOR ST AND LOWELL AVE 1050 TRAFFIC STOP
170922648735 9-22 20:26 9300 LEM TURNER RD 63 DISPUTE
170922648693 9-22 20:25 1200 N BAYSHORE DR 37 UNVERIFIED 911 CALL
170922648729 9-22 20:25 3400 FOREST BLVD 22 DOMESTIC
170922648738 9-22 20:25 12700 LANIER RD 76 ASSIST OTHER AGENCY
170922648744 9-22 20:25 PHILIPS HWY AND CYPRESS PLAZA DR 1050 TRAFFIC STOP
170922648742 9-22 20:24 700 N LINCOLN CT 1050 TRAFFIC STOP
170922648736 9-22 20:23 2400 W JUSTIN RD 27 MENTALLY ILL PERSON
170922648633 9-22 20:23 S ARLINGTON RD AND ATLANTIC BLVD 63 DISPUTE
170922648739 9-22 20:23 COMMONWEALTH AVE AND SUPERIOR ST 13 SUSPICIOUS PERSON
170922648737 9-22 20:22 W 11TH ST AND N MYRTLE AVE 1050 TRAFFIC STOP
170922648722 9-22 20:22 1500 W SUMMIT OAKS DR 1066 CANCEL
170922648656 9-22 20:20 1300 E 4TH ST 2 63 DISPUTE IMPAIRED/INTOXICATED
170922648698 9-22 20:19 6600 YOUNGERMAN CIR 2288 DOMESTIC DISPUTE WITH/ASSAULT
170922648732 9-22 20:19 W 8TH ST AND JAMES HALL DR 1050 TRAFFIC STOP
170922648546 9-22 20:19 400 STARRATT RD 63 DISPUTE
170922648724 9-22 20:17 2400 SPRING PARK RD 63 DISPUTE
170922648725 9-22 20:16 N LAURA ST AND COTTAGE AVE 1050 TRAFFIC STOP
170922648695 9-22 20:16 COLLINS RD AND RAMPART RD 4 AUTO CRASH
170922648723 9-22 20:16 W BEAVER ST AND S EDGEWOOD AVE 1050 TRAFFIC STOP
170922648720 9-22 20:15 3400 SOUTEL DR 1066 CANCEL
170922648634 9-22 20:15 700 TREKKER ST 56 JUVENILE COMPLAINT
170922648719 9-22 20:14 UNION/JEFF 1050 TRAFFIC STOP
170922648716 9-22 20:14 MONCRIEF RD AND ROYAL COURT LN 0 23I ARMED ROBBERY INDIVIDUAL
170922648696 9-22 20:13 3900 FREEL RD 2288 DOMESTIC DISPUTE WITH/ASSAULT
170922648713 9-22 20:12 2900 SYDNEY ST 29 WIRE DOWN
170922648715 9-22 20:11 ETOWN EXIT SR9B RP AND SR9B EXIT ETOWN RP 1050 TRAFFIC STOP
170922648700 9-22 20:09 4400 S FOREST HAVEN DR 1066 CANCEL
170922648706 9-22 20:09 N PEARL ST AND W 12TH ST 1050 TRAFFIC STOP
170922648705 9-22 20:09 THOMPSON ST AND EDISON AVE 13 SUSPICIOUS PERSON
170922648701 9-22 20:08 N I95 EXPWY AND BOWDEN RD 16 ROAD OBSTRUCTION
170922648599 9-22 20:07 11200 W PINE MOSS RD 63 DISPUTE
170922648694 9-22 20:06 6900 E RHODE ISLAND DR 13 SUSPICIOUS PERSON
170922648681 9-22 20:05 CLAY ST AND W ADAMS ST 16 ROAD OBSTRUCTION
170922648692 9-22 20:04 MARTIN LUTHER KING JR PKWY AND N CANAL ST 1050 TRAFFIC STOP
170922648664 9-22 20:04 POINT MEADOWS DR AND GATE PKWY 91 TRAFFIC LIGHT/RR CROSSING MALFUNCTION
170922648563 9-22 20:03 6300 103RD ST 22 DOMESTIC
170922648688 9-22 20:03 S I95 EXPWY AND KINGS RD 4 53 TRAFFIC CRASH PERSON INJURED
170922648679 9-22 20:03 2600 JAMMES RD 73 DRUG INVESTIGATION
170922648550 9-22 20:02 14000 BEACH BLVD 4 AUTO CRASH
170922648684 9-22 20:00 2100 KINGS RD 9J THEFT JUST OCCURRED
170922648685 9-22 20:00 COMMONWEALTH AVE AND N ELLIS RD 1050 TRAFFIC STOP
170922648669 9-22 20:00 DUNN AVE AND BISCAYNE BLVD 4 53 TRAFFIC CRASH PERSON INJURED
170922648682 9-22 19:58 3600 GREEN ST 13 SUSPICIOUS PERSON
170922648680 9-22 19:58 1600 SILVER ST 76 ASSIST OTHER AGENCY
170922648585 9-22 19:58 10200 RIVER COAST DR 3 HIT AND RUN CRASH
170922648678 9-22 19:57 4200 PHILIPS HWY 60 SUICIDE OR ATTEMPT
170922648676 9-22 19:55 700 N LINCOLN CT 1050 TRAFFIC STOP
170922648675 9-22 19:55 RIVERSIDE AVE AND FOREST ST 1050 TRAFFIC STOP
170922648666 9-22 19:52 9500 ARLINGTON EXPWY 68 CON GAME/FLIM FLAM
170922648665 9-22 19:52 W STATE ST AND N BROAD ST 1050 TRAFFIC STOP
170922648649 9-22 19:51 2900 JUSTINA RD 14 VANDALISM
170922648659 9-22 19:51 S I295 EXPWY AND 103RD ST 16 ROAD OBSTRUCTION
170922648651 9-22 19:50 5200 W MONCRIEF RD 63 DISPUTE
170922648658 9-22 19:50 KINGS RD AND CLEVELAND ST 1050 TRAFFIC STOP
170922648569 9-22 19:50 13600 PICARSA DR 73 DRUG INVESTIGATION
170922648627 9-22 19:50 6500 LAKE GRAY BLVD 64 NOISE COMPLAINT
170922648606 9-22 19:50 1700 LONGLEAF PINE WAY 73 DRUG INVESTIGATION
170922648590 9-22 19:49 1200 LABELLE ST 73 DRUG INVESTIGATION
170922648655 9-22 19:49 CLAYTON RD AND COMMONWEALTH AVE 1050 TRAFFIC STOP
170922648631 9-22 19:49 2400 W ORMSBY CIR 1066 CANCEL
170922648653 9-22 19:49 SPRING PARK RD AND EMERSON ST 88P ASSAULT IN PROGRESS
170922648593 9-22 19:48 100 W 19TH ST 63 DISPUTE
170922648652 9-22 19:48 6500 SYRINGA LN 9T THEFT (TELESERVE)
170922648630 9-22 19:47 8000 MERRILL RD 1066 CANCEL
170922648622 9-22 19:46 3100 BOULEVARD 63 DISPUTE
170922648647 9-22 19:46 4500 CAPE SABLE CT 76 ASSIST OTHER AGENCY
170922648648 9-22 19:46 N MC DUFF AVE AND W BEAVER ST 1050 TRAFFIC STOP
170922648641 9-22 19:45 13200 CITY SQUARE DR 1066 CANCEL
170922648645 9-22 19:45 3700 W MONCRIEF RD 1050 TRAFFIC STOP
170922648644 9-22 19:44 DUNN AVE AND HARRELL ST 96 ASSIST MOTORIST
170922648640 9-22 19:42 BLANDING BLVD AND S I295 EXPWY 16 ROAD OBSTRUCTION
170922648639 9-22 19:42 N I295 EXPWY AND WILSON BLVD 1050 TRAFFIC STOP
170922648638 9-22 19:42 KINGS RD AND POWHATTAN ST 1050 TRAFFIC STOP
170922648578 9-22 19:41 6900 S OLD KINGS RD 63 DISPUTE
170922648632 9-22 19:41 1200 AIRPORT RD 4 53 TRAFFIC CRASH PERSON INJURED
170922648624 9-22 19:40 3300 CLAIRE LN 9T THEFT (TELESERVE)
170922648629 9-22 19:40 PARK ST AND S MC DUFF AVE 1050 TRAFFIC STOP
170922648616 9-22 19:39 1000 ONTARIO ST 14 VANDALISM
170922648628 9-22 19:39 E STATE ST AND N LIBERTY ST 1050 TRAFFIC STOP
170922648626 9-22 19:39 1700 W 11TH ST 64 NOISE COMPLAINT
170922648575 9-22 19:38 5700 BENDER CT 9 THEFT
170922648576 9-22 19:38 2000 HODGES BLVD 63 DISPUTE
170922648539 9-22 19:38 7800 PIKES PEAK DR 22 DOMESTIC
170922648512 9-22 19:38 8700 JASPER AVE 63 DISPUTE
170922648623 9-22 19:37 S LANE AVE AND W BEAVER ST 1050 TRAFFIC STOP
170922648618 9-22 19:36 4000 BARNES RD 0 61 FIGHT W/WEAPON
170922648615 9-22 19:35 4TH AVE AND PROSPECT ST 5388 ASSAULT INVOLVING INJURY
170922648614 9-22 19:34 WINDLE ST AND BARNETT ST 1050 TRAFFIC STOP
170922648589 9-22 19:34 4000 ANVERS BLVD 63 DISPUTE
170922648610 9-22 19:33 10600 COLEMAN RD 63 DISPUTE
170922648612 9-22 19:33 3700 N OLD MIDDLEBURG RD 1066 CANCEL
170922648609 9-22 19:32 10600 COLEMAN RD 63 DISPUTE
170922648602 9-22 19:31 5400 NORWOOD AVE 13 SUSPICIOUS PERSON
170922648608 9-22 19:30 E BEAVER ST AND N OCEAN ST 1050 TRAFFIC STOP
170922648603 9-22 19:27 S MC DUFF AVE AND REXFORD ST 1050 TRAFFIC STOP
170922648600 9-22 19:27 S MC DUFF AVE AND EDISON AVE 1050 TRAFFIC STOP
170922648572 9-22 19:25 7100 S OLD KINGS RD 6388 DISPUTE WITH ASSAULT
170922648595 9-22 19:25 S I295 EXPWY AND WILSON BLVD 3 53 HIT AND RUN CRASH W/FIRE
170922648596 9-22 19:25 900 MONUMENT RD 64 NOISE COMPLAINT
170922648584 9-22 19:24 7300 OAKWOOD DR 13 SUSPICIOUS PERSON
170922648533 9-22 19:23 9300 103RD ST 21C BURGLARY CONVEYANCE
170922648577 9-22 19:23 9200 103RD ST 63 DISPUTE
170922648592 9-22 19:23 E STATE ST AND N LIBERTY ST 1050 TRAFFIC STOP
170922648396 9-22 19:23 11400 RENNE DR 10 VEHICLE THEFT
170922648525 9-22 19:22 5000 SAN JUAN AVE 63 DISPUTE
170922648566 9-22 19:18 100 EVERBANK FIELD DR 3 HIT AND RUN CRASH
170922648548 9-22 19:16 4000 SKYCREST DR 2 63 DISPUTE IMPAIRED/INTOXICATED
170922648532 9-22 19:15 8000 HERLONG RD 9 THEFT
170922648579 9-22 19:15 BEAVE/WE 1050 TRAFFIC STOP
170922648551 9-22 19:15 10900 SAN JOSE BLVD 1066 CANCEL
170922648574 9-22 19:14 6700 103RD ST 1066 CANCEL
170922648462 9-22 19:14 4400 FOREST BLVD 63 DISPUTE
170922648368 9-22 19:13 500 N OCEAN ST 10 VEHICLE THEFT
170922648571 9-22 19:12 5700 MONCRIEF RD 22 DOMESTIC
170922648570 9-22 19:11 MARTIN LUTHER KING JR PKWY AND E 8TH ST 1050 TRAFFIC STOP
170922648565 9-22 19:10 POINT MEADOWS DR AND GATE PKWY 4 53 TRAFFIC CRASH PERSON INJURED
170922648541 9-22 19:10 3700 VALVERDE CIR 95ID IDENTITY THEFT
170922648562 9-22 19:09 NORMANDY BLVD AND FOURAKER RD 16 ROAD OBSTRUCTION
170922648557 9-22 19:09 3100 EMERSON ST 76 ASSIST OTHER AGENCY
170922648556 9-22 19:09 W 1ST ST AND N PEARL ST 56 JUVENILE COMPLAINT
170922648561 9-22 19:09 100 W MATHEWS BRG 38 TRAFFIC ASSIGNMENT
170922648544 9-22 19:08 1800 BLUE RIDGE DR 27 MENTALLY ILL PERSON
170922648520 9-22 19:08 2700 W WINROCK DR 11 ABANDONED VEHICLE
170922648530 9-22 19:06 4300 CONFEDERATE POINT RD 63 DISPUTE
170922648480 9-22 19:06 2900 JUSTINA RD 63 DISPUTE
170922648553 9-22 19:05 1000 WOLFE ST 13 SUSPICIOUS PERSON
170922648543 9-22 19:04 N ARLINGTON RD AND JASPER AVE 3 HIT AND RUN CRASH
170922648414 9-22 19:04 1500 W UNIVERSITY BLVD 63 DISPUTE
170922648476 9-22 18:59 100 S BUCKMAN BRG 16 ROAD OBSTRUCTION
170922648475 9-22 18:59 4300 WINDERGATE DR 8 MISSING PERSON
170922648364 9-22 18:59 10100 CROFTON CT 8 MISSING PERSON
170922648538 9-22 18:58 7800 WILSON BLVD 56 JUVENILE COMPLAINT
170922648537 9-22 18:57 2600 N MAIN ST 61 FIGHT
170922648524 9-22 18:57 1600 LESSARD CIR 1066 CANCEL
170922648536 9-22 18:56 13/DAVIS 1050 TRAFFIC STOP
170922648412 9-22 18:56 4500 CAMBRIA ST 22 DOMESTIC
170922648531 9-22 18:55 11900 LEM TURNER RD 96 ASSIST MOTORIST
170922648491 9-22 18:55 ATLANTIC BLVD AND ART MUSEUM DR 6388 DISPUTE WITH ASSAULT
170922648374 9-22 18:54 2300 JERNIGAN RD 0 63 ARMED DISPUTE
170922648460 9-22 18:54 5500 NORWOOD AVE 63 DISPUTE
170922648527 9-22 18:54 10200 W BEAVER ST 63 DISPUTE
170922648522 9-22 18:54 9100 SUGARLAND DR 79T OBSCENE / THREAT CALL OR LETTER TELESERVE
170922648327 9-22 18:54 13700 N RICHMOND PARK DR 2 63 DISPUTE IMPAIRED/INTOXICATED
170922648508 9-22 18:53 EMERSON ST AND N I95 EXPWY 3T HIT AND RUN CRASH - TELESERVE
170922648510 9-22 18:53 S EDGEWOOD AVE AND HERSCHEL ST 91 TRAFFIC LIGHT/RR CROSSING MALFUNCTION
170922648452 9-22 18:52 14200 BEACH BLVD 3 HIT AND RUN CRASH
170922648516 9-22 18:52 5600 KENNERLY RD 19 ANIMAL INVESTIGATION
170922648515 9-22 18:51 N I95 EXPWY AND ATLANTIC BLVD 16 ROAD OBSTRUCTION
170922648517 9-22 18:51 2600 JAMMES RD 22 DOMESTIC
170922648518 9-22 18:51 100 S HART BRG 1050 TRAFFIC STOP
170922648457 9-22 18:51 1100 COMANCHE ST 27 MENTALLY ILL PERSON
170922648495 9-22 18:50 2500 RICKENBACKER ST 1066 CANCEL
170922648509 9-22 18:50 3300 W 20TH ST 27 MENTALLY ILL PERSON
170922648497 9-22 18:49 6000 ARGYLE FOREST BLVD 63 DISPUTE
170922648289 9-22 18:49 9300 103RD ST 22 DOMESTIC
170922648500 9-22 18:48 8900 BRIDGECREEK DR 19 ANIMAL INVESTIGATION
170922648507 9-22 18:48 SOUTH/WIC 1050 TRAFFIC STOP
170922648446 9-22 18:47 7300 W IRONSIDE DR 27 MENTALLY ILL PERSON
170922648481 9-22 18:47 DOUGLAS ST AND COMMERCE ST 88J ASSAULT JUST OCCURRED
170922648505 9-22 18:46 103RD ST AND S I295 EXPWY 13 SUSPICIOUS PERSON
170922648408 9-22 18:44 2200 W EDGEWOOD AVE 63 DISPUTE
170922648467 9-22 18:44 1700 W 11TH ST 64 NOISE COMPLAINT
170922648485 9-22 18:44 2000 HYDE PARK RD 3 HIT AND RUN CRASH
170922648421 9-22 18:44 6700 103RD ST 63 DISPUTE
170922648501 9-22 18:44 7600 ATLANTIC BLVD 16 ROAD OBSTRUCTION
170922648499 9-22 18:43 6800 MISTY VIEW DR 56 JUVENILE COMPLAINT
170922648445 9-22 18:42 7100 WILSON BLVD 63 DISPUTE
170922648441 9-22 18:42 7800 RAMPART RD 4 AUTO CRASH
170922648496 9-22 18:41 12100 LEM TURNER RD 9 THEFT
170922648432 9-22 18:41 7700 S TEMPEST ST 22 DOMESTIC
170922648494 9-22 18:40 W 8TH ST AND N DAVIS ST 1050 TRAFFIC STOP
170922648493 9-22 18:40 2400 SOUTEL DR 60 SUICIDE OR ATTEMPT
170922648492 9-22 18:40 1200 BROAD ST 9 THEFT
170922648490 9-22 18:39 4500 SAN JUAN AVE 63 DISPUTE
170922648469 9-22 18:39 4800 RIVER CITY DR 37 UNVERIFIED 911 CALL
170922648488 9-22 18:38 2100 CHEROKEE COVE TRL 63 DISPUTE
170922648378 9-22 18:38 11200 PANTHER CREEK PKWY 22 DOMESTIC
170922648363 9-22 18:37 9000 SAN JOSE BLVD 63 DISPUTE
170922648413 9-22 18:37 N MYRTLE AVE AND W 4TH ST 63 DISPUTE
170922648449 9-22 18:36 13900 BARTRAM PARK BLVD 63 DISPUTE
170922648487 9-22 18:36 W I10 EXPWY AND S US 301 HWY 1 IMPAIRED/DRUNK DRIVER
170922648479 9-22 18:36 200 E STATE ST 4 AUTO CRASH
170922648466 9-22 18:36 RAY RD AND CLEVELAND RD 87 DAMAGED PROPERTY
170922648420 9-22 18:36 7000 DEER LODGE CIR 13 SUSPICIOUS PERSON
170922648461 9-22 18:36 3000 POST ST 63 DISPUTE
170922648482 9-22 18:34 I10 EXPWY 4 AUTO CRASH
170922648463 9-22 18:34 1600 W EDGEWOOD AVE 63 DISPUTE
170922648483 9-22 18:34 KERN/ABES 1050 TRAFFIC STOP
170922648356 9-22 18:29 7100 S OLD KINGS RD 63 DISPUTE
170922648459 9-22 18:28 3800 EMERSON ST 9J THEFT JUST OCCURRED
170922648465 9-22 18:28 W I10 EXPWY AND CECIL COMMERCE CENTER PKWY 12 RECKLESS DRIVER
170922648474 9-22 18:27 2000 NIBLICK DR 56 JUVENILE COMPLAINT
170922648473 9-22 18:27 5100 BAYMEADOWS RD 38 TRAFFIC ASSIGNMENT
170922648472 9-22 18:27 9900 ATLANTIC BLVD 1050 TRAFFIC STOP
170922648468 9-22 18:26 7900 MERRILL RD 8 27 MISSING MENTALLY ILL
170922648470 9-22 18:26 11200 S ST JOHNS INDUSTRIAL PKWY 3 HIT AND RUN CRASH
170922648464 9-22 18:26 2000 LAKE WEIR AVE 50 FOUND/ABANDONED PROPERTY
170922648399 9-22 18:25 J TURNER BUTLER BLVD AND S KERNAN BLVD 4 AUTO CRASH
170922648406 9-22 18:25 1000 PARK ST 63 DISPUTE
170922648433 9-22 18:24 800 ARLINGTON RIVER DR 64 NOISE COMPLAINT
170922648444 9-22 18:22 2300 BUTLER ST 1066 CANCEL
170922648398 9-22 18:22 W LOVELAND PASS DR AND BEAVER CREEK DR 96 ASSIST MOTORIST
170922648276 9-22 18:21 9500 ARGYLE FOREST BLVD 4 AUTO CRASH
170922648390 9-22 18:20 100 ANDRESS ST 3 HIT AND RUN CRASH
170922648393 9-22 18:19 4800 PAYNE STEWART DR 9T THEFT (TELESERVE)
170922648456 9-22 18:19 2200 BEACH 1050 TRAFFIC STOP
170922648455 9-22 18:19 1300 LASALLE ST 63 DISPUTE
170922648453 9-22 18:19 S LANE AVE AND LENOX AVE 13 SUSPICIOUS PERSON
170922648323 9-22 18:19 1000 N EDGEWOOD AVE 13 SUSPICIOUS PERSON
170922648431 9-22 18:18 6800 GOLFVIEW ST 13 SUSPICIOUS PERSON
170922648423 9-22 18:17 TROUT RIVER BLVD AND LEM TURNER RD 16T TREE IN ROADWAY WEATHER
170922648450 9-22 18:17 N I295 EXPWY AND MONUMENT RD 96 ASSIST MOTORIST
170922648439 9-22 18:17 LARUE AVE AND NIRA ST 13 SUSPICIOUS PERSON
170922648438 9-22 18:17 S I295 EXPWY AND NORMANDY BLVD 27 MENTALLY ILL PERSON
170922648425 9-22 18:15 ARGYLE FOREST BLVD AND BLANDING BLVD 4 AUTO CRASH
170922648371 9-22 18:14 4600 SALISBURY RD 63 DISPUTE
170922648442 9-22 18:14 WILLESDON DR S/KNOTTINGHAM TR 1050 TRAFFIC STOP
170922648401 9-22 18:13 ARLINGTON EXPWY AND E MATHEWS BRG 16 ROAD OBSTRUCTION
170922648392 9-22 18:13 4100 TOWN CENTER PKWY 3 HIT AND RUN CRASH
170922648280 9-22 18:12 4600 SALISBURY RD 63 DISPUTE
170922648418 9-22 18:12 7200 NORMANDY BLVD 13 SUSPICIOUS PERSON
170922648424 9-22 18:11 DUNN AVE AND ARMSDALE RD 54 ILLEGALLY PARKED CAR
170922648429 9-22 18:11 900 REVELS RD 56 JUVENILE COMPLAINT
170922648428 9-22 18:10 7900 E BAYMEADOWS CIR 13 SUSPICIOUS PERSON
170922648402 9-22 18:09 12100 LEM TURNER RD 95 FRAUD/FORGED (CHECK, ID, RX)
170922648422 9-22 18:08 S I95 EXPWY AND OLD ST AUGUSTINE RD 4 AUTO CRASH
170922648417 9-22 18:06 I95/GOLFAIR 96 ASSIST MOTORIST
170922648380 9-22 18:06 4000 MYRA ST 1066 CANCEL
170922648411 9-22 18:06 COLLINS RD AND PINEVERDE LN 13 SUSPICIOUS PERSON
170922648416 9-22 18:06 N WASHINGTON ST AND E DUVAL ST 1050 TRAFFIC STOP
170922648329 9-22 18:05 14100 DENTON RD 63 DISPUTE
170922648404 9-22 18:04 3900 TROUT RIVER BLVD 16 ROAD OBSTRUCTION
170922648409 9-22 18:04 5000 CLEVELAND RD 1050 TRAFFIC STOP
170922648407 9-22 18:03 14600 BEACH BLVD 1050 TRAFFIC STOP
170922648335 9-22 18:02 3700 BLANDING BLVD 9 THEFT
170922648405 9-22 18:02 PHIL/UNIV. 96 ASSIST MOTORIST
170922648394 9-22 18:02 MERRILL RD AND SOUTHSIDE CONNECTOR BLVD 4 AUTO CRASH
170922648339 9-22 17:59 3500 REMINGTON ST 21R BURGLARY RESIDENCE
170922648366 9-22 17:58 NEW BERLIN RD AND PONCE BLVD 4 53 TRAFFIC CRASH PERSON INJURED
170922648395 9-22 17:58 ATLANTIC BLVD AND S ST JOHNS BLUFF RD 16 ROAD OBSTRUCTION
170922648391 9-22 17:58 E 8TH ST AND N LIBERTY ST 88P ASSAULT IN PROGRESS
170922648377 9-22 17:57 9100 MOUNTAINTOP CT 21C BURGLARY CONVEYANCE
170922648382 9-22 17:56 W EDGEWOOD AVE AND LEM TURNER RD 16 ROAD OBSTRUCTION
170922648388 9-22 17:55 700 N MARKET ST 2 IMPAIRED/INTOXICATED
170922648288 9-22 17:54 8000 ATLANTIC BLVD 9 THEFT
170922648381 9-22 17:53 9400 ATLANTIC BLVD 13 SUSPICIOUS PERSON
170922648359 9-22 17:53 8400 SOUTHSIDE BLVD 17 PERSON DOWN OR SICK
170922648300 9-22 17:51 4600 HARBOUR NORTH CT 68 CON GAME/FLIM FLAM
170922648334 9-22 17:50 3900 SALISBURY RD 63 DISPUTE
170922648341 9-22 17:50 4400 MARGUERITE ST 63 DISPUTE
170922648373 9-22 17:48 2200 BEACH 1050 TRAFFIC STOP
170922648369 9-22 17:48 MARTIN LUTHER KING JR PKWY AND N LIBERTY ST 16 ROAD OBSTRUCTION
170922648338 9-22 17:48 ST AUGUSTINE RD AND W UNIVERSITY BLVD 4 AUTO CRASH
170922648361 9-22 17:48 5100 MARTHA ANN DR 9 THEFT
170922648322 9-22 17:47 12500 N MAIN ST 63 DISPUTE
170922648345 9-22 17:47 2800 SEBASTIAN CT 2 22 DOMESTIC DISTURBANCE
170922648367 9-22 17:46 SS/JTB 1050 TRAFFIC STOP
170922648349 9-22 17:46 400 MONUMENT RD 9 THEFT
170922648365 9-22 17:46 N PEARL ST AND W 26TH ST 73 DRUG INVESTIGATION
170922648312 9-22 17:45 2700 CHESTERBROOK CT 13 SUSPICIOUS PERSON
170922648353 9-22 17:44 2400 SAN DIEGO RD 37 UNVERIFIED 911 CALL
170922648355 9-22 17:44 1900 CORPORATE SQUARE BLVD 27 MENTALLY ILL PERSON
170922648287 9-22 17:44 1600 W 45TH ST 1066 CANCEL
170922648354 9-22 17:43 4700 WAVERLY LN 60 SUICIDE OR ATTEMPT
170922648350 9-22 17:43 14400 BEACH BLVD 3 HIT AND RUN CRASH
170922648249 9-22 17:42 2100 N EDGEWOOD AVE 3 HIT AND RUN CRASH
170922648336 9-22 17:40 3000 DUNN AVE 4 AUTO CRASH
170922648333 9-22 17:39 12200 BISCAYNE BLVD 63 DISPUTE
170922648238 9-22 17:38 3600 E BOWDEN CIR 63 DISPUTE
170922648347 9-22 17:38 14600 BEACH 1050 TRAFFIC STOP
170922648343 9-22 17:38 S I295 EXPWY AND NORMANDY BLVD 4 AUTO CRASH
170922648346 9-22 17:37 1000 DUNN AVE 1050 TRAFFIC STOP
170922648340 9-22 17:37 200 E STATE ST 63 DISPUTE
170922648310 9-22 17:37 1600 RUTLEDGE AVE 37 UNVERIFIED 911 CALL
170922648342 9-22 17:37 S I95 EXPWY AND W UNIVERSITY BLVD 1050 TRAFFIC STOP
170922648324 9-22 17:36 8100 W BAYMEADOWS CIR 27 MENTALLY ILL PERSON
170922648330 9-22 17:33 1000 W 30TH ST 23I ROBBERY INDIVIDUAL
170922648318 9-22 17:33 2700 ELMWOOD RD 54 ILLEGALLY PARKED CAR
170922648332 9-22 17:33 N MAIN ST AND W 23RD ST 1050 TRAFFIC STOP
170922648326 9-22 17:32 N I95 EXPWY AND W UNIVERSITY BLVD 4 AUTO CRASH
170922648328 9-22 17:32 DUNN AVE AND V C JOHNSON RD 1050 TRAFFIC STOP
170922648325 9-22 17:31 8300 S OLD KINGS RD 76 ASSIST OTHER AGENCY
170922648317 9-22 17:29 7100 NEW KINGS RD 16 ROAD OBSTRUCTION
170922648311 9-22 17:28 NEW BERLIN RD AND LANIER RD 4 AUTO CRASH
170922648298 9-22 17:28 400 E AUBURN OAKS RD 1066 CANCEL
170922648297 9-22 17:28 ST AUGUSTINE RD AND W UNIVERSITY BLVD 16 ROAD OBSTRUCTION
170922648309 9-22 17:26 5700 LENOX AVE 56 JUVENILE COMPLAINT
170922648296 9-22 17:26 POINT MEADOWS WAY AND BAYMEADOWS RD 91 TRAFFIC LIGHT/RR CROSSING MALFUNCTION
170922648295 9-22 17:26 8000 BLAZING STAR RD 68 CON GAME/FLIM FLAM
170922648302 9-22 17:25 1200 N PEARL ST 9 THEFT
170922648303 9-22 17:25 2900 GRAND AVE 13 SUSPICIOUS PERSON
170922648301 9-22 17:24 2900 BRANWOOD RD 8 27 MISSING MENTALLY ILL
170922648291 9-22 17:24 4300 BRENTWOOD AVE 63 DISPUTE
170922648286 9-22 17:23 S I95 EXPWY AND MARTIN LUTHER KING JR PKWY 13 SUSPICIOUS PERSON
170922648294 9-22 17:22 4400 ROOSEVELT BLVD 86T LOST PROPERTY (TELESERVE)
170922648290 9-22 17:22 2100 TUSKEGEE RD 95ID IDENTITY THEFT
170922648283 9-22 17:21 4400 BLANDING BLVD 0 63 ARMED DISPUTE
170922648282 9-22 17:20 GATE PKWY AND POINT MEADOWS DR 38 TRAFFIC ASSIGNMENT
170922648222 9-22 17:20 3400 GLEN ST 63 DISPUTE
170922648236 9-22 17:20 700 N MC DUFF AVE 4 AUTO CRASH
170922648268 9-22 17:19 1200 N KERNAN BLVD 4 AUTO CRASH
170922648262 9-22 17:18 4200 JAMES E CASEY DR 63 DISPUTE
170922648284 9-22 17:18 3500 BLANDING BLVD 27 MENTALLY ILL PERSON
170922648233 9-22 17:16 12800 BAY PLANTATION DR 3 HIT AND RUN CRASH
170922648252 9-22 17:14 1300 PRUDENTIAL DR 63 DISPUTE
170922648271 9-22 17:14 N I295 EXPWY AND LEM TURNER RD 16 ROAD OBSTRUCTION
170922648266 9-22 17:13 14500 GOSSETT ST 63 DISPUTE
170922648278 9-22 17:12 500 W 8TH ST 60 SUICIDE OR ATTEMPT
170922648272 9-22 17:11 1900 PAINE AVE 63 DISPUTE
170922648270 9-22 17:10 5200 NORWOOD AVE 63 DISPUTE
170922648260 9-22 17:10 2300 W EDGEWOOD AVE 13 SUSPICIOUS PERSON
170922648256 9-22 17:09 PHILIPS HWY AND BOWDEN RD 4 AUTO CRASH
170922648257 9-22 17:09 4200 MONCRIEF RD 9J THEFT JUST OCCURRED
170922648226 9-22 17:08 GATE PKWY AND POINT MEADOWS DR 91 TRAFFIC LIGHT/RR CROSSING MALFUNCTION
170922648269 9-22 17:08 5400 NORWOOD AVE 1050 TRAFFIC STOP
170922648205 9-22 17:07 10900 SAN JOSE BLVD 9 THEFT
170922648259 9-22 17:06 8800 S OLD KINGS RD 87 DAMAGED PROPERTY
170922648264 9-22 17:06 400 W 62 1050 TRAFFIC STOP
170922648263 9-22 17:05 14700 BEACH BLVD 38 TRAFFIC ASSIGNMENT
170922648195 9-22 17:04 1900 MONTEAU DR 21R BURGLARY RESIDENCE
170922648245 9-22 17:04 2100 ST JOHNS AVE 13 SUSPICIOUS PERSON
170922648185 9-22 17:04 900 JAMES ST 11 ABANDONED VEHICLE
170922648254 9-22 17:03 100 S DAMES POINT BRG 16 ROAD OBSTRUCTION
170922648255 9-22 17:02 5600 BOWDEN RD 4 53 TRAFFIC CRASH PERSON INJURED
170922648173 9-22 17:02 5900 BLACKTHORN RD 79 OBSCENE / THREAT CALL OR LETTER
170922648189 9-22 17:02 1500 W 10TH ST 88 ASSAULT
170922648243 9-22 17:00 10000 103RD ST 1066 CANCEL
170922648242 9-22 17:00 7900 MERRILL RD 13 SUSPICIOUS PERSON
170922648253 9-22 16:59 44TH/BRENTWOOD 1050 TRAFFIC STOP
170922648160 9-22 16:59 7400 BLANDING BLVD 2 IMPAIRED/INTOXICATED
170922648194 9-22 16:59 N ST JOHNS BLUFF RD AND CAUSEY LN 63 DISPUTE
170922648251 9-22 16:59 103RD ST AND RICKER RD 1050 TRAFFIC STOP
170922648237 9-22 16:57 8900 N COUNTRY BEND CIR 16 ROAD OBSTRUCTION
170922648246 9-22 16:57 S I95 EXPWY AND ATLANTIC BLVD 4 AUTO CRASH
170922648232 9-22 16:56 PIERRE DR AND W LOURDES DR 23I ROBBERY INDIVIDUAL
170922648229 9-22 16:55 1000 GOLFAIR BLVD 63 DISPUTE
170922648199 9-22 16:54 8700 ARLINGTON EXPWY 95ID IDENTITY THEFT
170922648244 9-22 16:54 SAN MARCO/TERR 27 MENTALLY ILL PERSON
170922648217 9-22 16:53 1600 S SAN PABLO RD 63 DISPUTE
170922648234 9-22 16:49 3300 HICKORY HAMMOCK RD 4 AUTO CRASH
170922648202 9-22 16:49 100 W 16TH ST 63 DISPUTE
170922648175 9-22 16:49 3700 PALEFACE PL 19 ANIMAL INVESTIGATION
170922648230 9-22 16:48 N I95 EXPWY AND ATLANTIC BLVD 16 ROAD OBSTRUCTION
170922648235 9-22 16:48 LEONID RD AND LEM TURNER RD 96 ASSIST MOTORIST
170922648228 9-22 16:45 5300 NORTHWOOD 1050 TRAFFIC STOP
170922648211 9-22 16:43 W I10 EXPWY AND ROOSEVELT EXPWY 3 HIT AND RUN CRASH
170922648213 9-22 16:43 W I10 EXPWY AND STOCKTON ST 3 HIT AND RUN CRASH
170922648212 9-22 16:43 6000 N GULF RD 63 DISPUTE
170922648220 9-22 16:43 1000 E BROOKMONT AVE 29 WIRE DOWN
170922648198 9-22 16:43 5400 W BEAVER ST 16 ROAD OBSTRUCTION
170922648216 9-22 16:43 S CHAFFEE RD AND CRYSTAL SPRINGS RD 4 53 TRAFFIC CRASH PERSON INJURED
170922648215 9-22 16:41 OLD PLANK RD AND BULLS BAY HWY 3 HIT AND RUN CRASH
170922647986 9-22 16:40 MEMORIAL PARK RD AND NORMANDY BLVD 4 AUTO CRASH
170922648209 9-22 16:40 S I95 EXPWY AND E I10 EXPWY 3 HIT AND RUN CRASH
170922648208 9-22 16:39 JAMMES RD AND 103RD ST 0 88J ARMED ASSAULT JUST OCCURRED
170922648206 9-22 16:37 E HAMPTON PARK BLVD AND BLACKSTONE RIVER DR 12 RECKLESS DRIVER
170922648186 9-22 16:37 1800 W 4TH ST 63 DISPUTE
170922648201 9-22 16:36 1000 EDGE. 1066 CANCEL
170922648132 9-22 16:36 2900 ISSER CT 60 SUICIDE OR ATTEMPT
170922648181 9-22 16:34 CEDAR BAY RD AND N MAIN ST 4 AUTO CRASH
170922648196 9-22 16:34 W 21ST ST AND N DAVIS ST 1050 TRAFFIC STOP
170922648093 9-22 16:33 2100 HYDE PARK RD 1066 CANCEL
170922648168 9-22 16:32 4600 MONCRIEF RD 1066 CANCEL
170922648155 9-22 16:32 S I95 EXPWY AND ATLANTIC BLVD 4 AUTO CRASH
170922648188 9-22 16:31 2700 DUPONT AVE 88P ASSAULT IN PROGRESS
170922648096 9-22 16:31 BLANDING BLVD AND S I295 EXPWY 4 AUTO CRASH
170922648184 9-22 16:31 W UNIVERSITY BLVD AND SPRING PARK RD 1066 CANCEL
170922648190 9-22 16:31 E HAMPTON PARK BLVD AND BLACKSTONE RIVER DR 12 RECKLESS DRIVER
170922648183 9-22 16:30 8900 DEVON PINES DR 60 SUICIDE OR ATTEMPT
170922648158 9-22 16:29 7700 SPINDLETREE CT 21C BURGLARY CONVEYANCE
170922648180 9-22 16:29 1900 CASSAT AVE 13 SUSPICIOUS PERSON
170922648030 9-22 16:28 14700 BARTRAM PARK BLVD 63 DISPUTE
170922648153 9-22 16:28 7400 FULLERTON ST 95ID IDENTITY THEFT
170922648170 9-22 16:27 1200 E BROOKMONT AVE 29 WIRE DOWN
170922648172 9-22 16:27 500 STOCKTON ST 76 ASSIST OTHER AGENCY
170922648124 9-22 16:27 11400 SAN JOSE BLVD 13 SUSPICIOUS PERSON
170922648174 9-22 16:26 13000 RIVER SPRINGS WAY 4 AUTO CRASH
170922648167 9-22 16:25 7000 N COTILLION RD 19 ANIMAL INVESTIGATION
170922648140 9-22 16:24 N I295 EXPWY AND BAYMEADOWS RD 16 ROAD OBSTRUCTION
170922647890 9-22 16:23 300 E BAY ST 70 COUNTERFEIT
170922648146 9-22 16:23 W 45TH ST AND XAVIER RD 3 HIT AND RUN CRASH
170922648144 9-22 16:23 2000 CHEROKEE COVE TRL 11 ABANDONED VEHICLE
170922648164 9-22 16:22 I295/BAY 16 ROAD OBSTRUCTION
170922648156 9-22 16:21 900 BRIDIER ST 9T THEFT (TELESERVE)
170922648161 9-22 16:21 6300 TROUT RIVER BLVD 11 ABANDONED VEHICLE
170922648157 9-22 16:21 POST ST AND CASSAT AVE 91 TRAFFIC LIGHT/RR CROSSING MALFUNCTION
170922648159 9-22 16:20 SR23 SB/103RD 96 ASSIST MOTORIST
170922648128 9-22 16:19 8700 N BANDERA CIR 76 ASSIST OTHER AGENCY
170922648100 9-22 16:19 6000 ARGYLE FOREST BLVD 9 THEFT
170922648152 9-22 16:18 PHIL/GREEN 16 ROAD OBSTRUCTION
170922648148 9-22 16:18 100 S MAIN ST BRG 0 13 ARMED SUSPICIOUS PERSON
170922648150 9-22 16:18 E HAMPTON PARK BLVD AND BLACKSTONE RIVER DR 12 RECKLESS DRIVER
170922648107 9-22 16:17 700 N EDGEWOOD AVE 4 AUTO CRASH
170922648098 9-22 16:17 1000 N EDGEWOOD AVE 4 AUTO CRASH
170922648147 9-22 16:15 1200 DUNN AVE 56 JUVENILE COMPLAINT
170922648145 9-22 16:14 SS/BELLE 16 ROAD OBSTRUCTION
170922648079 9-22 16:13 7300 RICHARDSON RD 22 DOMESTIC
170922648111 9-22 16:13 NEW BERLIN RD AND N MAIN ST 12 RECKLESS DRIVER
170922648080 9-22 16:13 1200 W 18TH ST 63 DISPUTE
170922648089 9-22 16:13 9400 ATLANTIC BLVD 13 SUSPICIOUS PERSON
170922648034 9-22 16:13 W 18TH ST AND N MYRTLE AVE 63 DISPUTE
170922648037 9-22 16:12 2900 VERN DR 2288 DOMESTIC DISPUTE WITH/ASSAULT
170922648141 9-22 16:12 N PEARL ST AND W 8TH ST 1050 TRAFFIC STOP
170922648137 9-22 16:11 3000 DATE ST 16 ROAD OBSTRUCTION
170922648135 9-22 16:11 200 E 19TH ST 0 60 SUICIDE THREAT W/WEAPON
170922648069 9-22 16:10 600 E ADAMS ST 1066 CANCEL
170922648121 9-22 16:08 1000 DUNN AVE 95ID IDENTITY THEFT
170922647898 9-22 16:08 WESCONNETT BLVD AND HARLOW BLVD 3 HIT AND RUN CRASH
170922648127 9-22 16:08 1300 DUNN AVE 1050 TRAFFIC STOP
170922648060 9-22 16:07 2000 HENDRICKS AVE 70 COUNTERFEIT
170922648122 9-22 16:07 2100 W EDGEWOOD AVE 1050 TRAFFIC STOP
170922647958 9-22 16:07 3700 BEACH BLVD 10 VEHICLE THEFT
170922648120 9-22 16:06 E HAMPTON PARK BLVD AND BLACKSTONE RIVER DR 12 RECKLESS DRIVER
170922648083 9-22 16:05 4100 BELFORT RD 63 DISPUTE
170922648118 9-22 16:04 95/BAYM 1050 TRAFFIC STOP
170922648116 9-22 16:04 N I95 EXPWY AND MARTIN LUTHER KING JR PKWY 4 AUTO CRASH
170922648088 9-22 16:04 7700 BAYMEADOWS WAY 4 AUTO CRASH
170922648114 9-22 16:03 600 N JULIA ST 73 DRUG INVESTIGATION
170922648110 9-22 16:03 2400 SPRING VALE RD 22 DOMESTIC
170922648113 9-22 16:03 S9/E TOWN 3 HIT AND RUN CRASH
170922648086 9-22 16:01 3200 HODGES BLVD 1 IMPAIRED/DRUNK DRIVER
170922648109 9-22 16:01 W 6TH ST AND N LAURA ST 1050 TRAFFIC STOP
170922648070 9-22 16:01 11700 SAIL AVE 1066 CANCEL
170922648045 9-22 16:01 5500 W UNIVERSITY BLVD 4 AUTO CRASH
170922648104 9-22 16:00 BAYM/SS 16 ROAD OBSTRUCTION
170922648102 9-22 15:59 7765NORMAND 63 DISPUTE
170922648077 9-22 15:59 SOUTHSIDE BLVD AND BELLE RIVE BLVD 16 ROAD OBSTRUCTION
170922648039 9-22 15:58 5400 W 1ST ST 63 DISPUTE
170922648097 9-22 15:58 HAMPTON PARK BLVD AND BLACKSTONE 12 RECKLESS DRIVER
170922648063 9-22 15:57 SAN JOSE BLVD AND N I295 EXPWY 16 ROAD OBSTRUCTION
170922647789 9-22 15:57 9000 S FAIRGLADE DR 95 FRAUD/FORGED (CHECK, ID, RX)
170922648053 9-22 15:57 7100 WILSON BLVD 63 DISPUTE
170922647941 9-22 15:56 8200 BEACH BLVD 6388 DISPUTE WITH ASSAULT
170922648091 9-22 15:55 5900 NORMANDY BLVD 4 53 TRAFFIC CRASH PERSON INJURED
170922648074 9-22 15:54 E DUTTON ISLAND RD AND W DUTTON ISLAND RD 3T HIT AND RUN CRASH - TELESERVE
170922648090 9-22 15:54 ROOSEVELT BLVD AND POST ST 4 AUTO CRASH
170922647714 9-22 15:53 1100 MAPLE AVE 9 THEFT
170922648087 9-22 15:52 S MC DUFF AVE AND LENOX AVE 1050 TRAFFIC STOP
170922648084 9-22 15:51 8800 BAYMEADOWS RD 16 ROAD OBSTRUCTION
170922648082 9-22 15:49 E HAMPTON PARK BLVD AND BLACKSTONE RIVER DR 12 RECKLESS DRIVER
170922647985 9-22 15:49 LAKE SHORE BLVD AND PLYMOUTH ST 4 AUTO CRASH
170922647918 9-22 15:49 9200 103RD ST 22 DOMESTIC
170922648078 9-22 15:48 S MC DUFF AVE AND WARRINGTON ST 1050 TRAFFIC STOP
170922648076 9-22 15:48 8200 PHILIPS HWY 95 FRAUD/FORGED (CHECK, ID, RX)
170922648012 9-22 15:48 10800 PHILIPS HWY 63 DISPUTE
170922648073 9-22 15:48 E 41ST ST AND N MAIN ST 4 AUTO CRASH
170922648072 9-22 15:47 A PHILIP RANDOLPH BLVD AND OAKLEY ST 1050 TRAFFIC STOP
170922648021 9-22 15:46 BEACH BLVD AND BROUGHAM AVE 4 AUTO CRASH
170922648067 9-22 15:45 9500 ARLINGTON EXY 86 LOST PROPERTY
170922648066 9-22 15:45 LKSH/BLNDING 1050 TRAFFIC STOP
170922648057 9-22 15:45 3600 HEMLOCK ST 22 DOMESTIC
170922648028 9-22 15:45 10300 BEACH BLVD 9J THEFT JUST OCCURRED
170922647842 9-22 15:44 6300 BEACH BLVD 27 MENTALLY ILL PERSON
170922648059 9-22 15:44 500 DAVIS 1050 TRAFFIC STOP
170922648049 9-22 15:43 12200 BISCAYNE BLVD 56 JUVENILE COMPLAINT
170922647973 9-22 15:43 1600 FAIRFAX ST 6388 DISPUTE WITH ASSAULT
170922648055 9-22 15:42 E HAMPTON PARK BLVD AND BLACKSTONE RIVER DR 12 RECKLESS DRIVER
170922648041 9-22 15:42 CHESWICK OAK AVE AND ARGYLE FOREST BLVD 13 SUSPICIOUS PERSON
170922648005 9-22 15:41 9300 SAN JOSE BLVD 88J ASSAULT JUST OCCURRED
170922648019 9-22 15:41 8300 HOMEPORT CT 37 UNVERIFIED 911 CALL
170922648017 9-22 15:39 3600 MOONFLOWER RD 33 DISCHARGING OF FIREARM
170922648043 9-22 15:38 OLD ST AUGUSTINE RD AND LOSCO RD 4 53 TRAFFIC CRASH PERSON INJURED
170922648044 9-22 15:38 BEAV/ACOR 96 ASSIST MOTORIST
170922647976 9-22 15:38 105TH ST AND WESCONNETT BLVD 63 DISPUTE
170922647924 9-22 15:37 S MC DUFF AVE AND ROOSEVELT BLVD 4 AUTO CRASH
170922648025 9-22 15:37 4800 SAN JUAN AVE 63 DISPUTE
170922648002 9-22 15:36 S SAN PABLO RD AND ATLANTIC BLVD 4 AUTO CRASH
170922648027 9-22 15:36 S I95 EXPWY AND W 8TH ST 16 ROAD OBSTRUCTION
170922648035 9-22 15:34 E HAMPTON PARK BLVD AND BLACKSTONE RIVER DR 12 RECKLESS DRIVER
170922647907 9-22 15:34 1900 MC MILLAN ST 63 DISPUTE
170922648018 9-22 15:32 S I95 EXPWY AND W UNIVERSITY BLVD 4 AUTO CRASH
170922648023 9-22 15:32 SOUTHSIDE BLVD AND N NIMITZ CT 4 53 TRAFFIC CRASH PERSON INJURED
170922647838 9-22 15:32 8200 SOUTHSIDE BLVD 4 AUTO CRASH
170922648029 9-22 15:31 2000 WALNUT ST 13 SUSPICIOUS PERSON
170922647891 9-22 15:28 8500 COCOA AVE 21R BURGLARY RESIDENCE
170922648024 9-22 15:28 STATE/LAURA 1050 TRAFFIC STOP
170922647998 9-22 15:28 3500 W UNIVERSITY BLVD 9J THEFT JUST OCCURRED
170922647886 9-22 15:28 8000 COCOA AVE 21R BURGLARY RESIDENCE
170922647935 9-22 15:27 7600 COVEWOOD DR 22 DOMESTIC
170922648010 9-22 15:26 2000 PHOENIX AVE 22 DOMESTIC
170922648013 9-22 15:26 INTER AIRPORT/BISCAYNE 1050 TRAFFIC STOP
170922648011 9-22 15:25 E HAMPTON PARK BLVD AND BLACKSTONE RIVER DR 12 RECKLESS DRIVER
170922648007 9-22 15:25 2100 MAYPORT RD 4 53 TRAFFIC CRASH PERSON INJURED
170922648006 9-22 15:25 MAYPORT RD AND W DUTTON ISLAND RD 4 53 TRAFFIC CRASH PERSON INJURED
170922648004 9-22 15:24 SAN JOSE/KORI 13 SUSPICIOUS PERSON
170922648000 9-22 15:23 1400 JOSEPH ST 21R BURGLARY RESIDENCE
170922648001 9-22 15:22 FRIENDSHIP FOUNTAIN 13 SUSPICIOUS PERSON
170922647686 9-22 15:22 1500 S LANE AVE 1066 CANCEL
170922647999 9-22 15:21 I295/BUCKMAN 16 ROAD OBSTRUCTION
170922647927 9-22 15:21 3500 BEACH BLVD 63 DISPUTE
170922647989 9-22 15:20 THEED ST AND CESERY BLVD 16 ROAD OBSTRUCTION
170922647990 9-22 15:20 2400 SOUTEL DR 76 ASSIST OTHER AGENCY
170922647994 9-22 15:19 700 N MARKET ST 13 SUSPICIOUS PERSON
170922647993 9-22 15:19 12500 103RD ST 38 TRAFFIC ASSIGNMENT
170922647955 9-22 15:17 6200 PINE BLUFF DR 9T THEFT (TELESERVE)
170922647987 9-22 15:17 8TH/IONA 1050 TRAFFIC STOP
170922647908 9-22 15:17 8700 NEWTON RD 22 DOMESTIC
170922647984 9-22 15:16 2800 TALLEYRAND AVE 87 DAMAGED PROPERTY
170922647981 9-22 15:16 10300 SOUTHSIDE BLVD 4 AUTO CRASH
170922647983 9-22 15:16 I-295 NB / PRITCHARD RD 12 RECKLESS DRIVER
170922647980 9-22 15:16 11500 LORENCE AVE 63 DISPUTE
170922647965 9-22 15:16 PHILIPS HWY AND RACETRACK RD 16 ROAD OBSTRUCTION
170922647954 9-22 15:15 6500 BLANDING BLVD 63 DISPUTE
170922647820 9-22 15:14 6800 WILSON BLVD 63 DISPUTE
170922647922 9-22 15:14 5300 PALMER AVE 63 DISPUTE
170922647964 9-22 15:14 2900 W 16TH ST 13 SUSPICIOUS PERSON
170922647903 9-22 15:13 1700 TALBOT AVE 63 DISPUTE
170922647957 9-22 15:13 3100 PHILIPS HWY 73 DRUG INVESTIGATION
170922647975 9-22 15:12 E HAMPTON PARK BLVD AND BLACKSTONE RIVER DR 12 RECKLESS DRIVER
170922647747 9-22 15:12 WILSON BLVD AND FIRESTONE RD 2 63 DISPUTE IMPAIRED/INTOXICATED
170922647909 9-22 15:11 10000 BELLE RIVE BLVD 4 53 TRAFFIC CRASH PERSON INJURED
170922647969 9-22 15:10 ATLANTIC BLVD AND SAN MATEO AVE 16 ROAD OBSTRUCTION
170922647968 9-22 15:10 800 N. LIBERTY ST 13 SUSPICIOUS PERSON
170922647963 9-22 15:09 PHOENIX/10TH 1050 TRAFFIC STOP
170922647951 9-22 15:09 10100 SANDLER RD 13 SUSPICIOUS PERSON
170922647764 9-22 15:09 3700 S UNIVERSITY BLVD 10 VEHICLE THEFT
170922647962 9-22 15:08 400 PECAN PARK 1050 TRAFFIC STOP
170922647959 9-22 15:08 S I295 EXPWY AND OLD ST AUGUSTINE RD 12 RECKLESS DRIVER
170922647936 9-22 15:07 N MC DUFF AVE AND W BEAVER ST 4 AUTO CRASH
170922647956 9-22 15:07 E HAMPTON PARK BLVD AND BLACKSTONE RIVER DR 12 RECKLESS DRIVER
170922647953 9-22 15:07 N SR9B EXPWY AND PHILIPS HWY 12 RECKLESS DRIVER
170922647881 9-22 15:06 2900 OAK ST 95ID IDENTITY THEFT
170922647949 9-22 15:04 6900 E LENOIR AVE 13 SUSPICIOUS PERSON
170922647722 9-22 15:04 8300 DAMES POINT CROSSING 10 VEHICLE THEFT
170922647813 9-22 15:03 900 OLD HICKORY RD 1066 CANCEL
170922647940 9-22 15:00 1700 W 14TH ST 1050 TRAFFIC STOP
170922647938 9-22 15:00 10600 BEACH BLVD 9J THEFT JUST OCCURRED
170922647923 9-22 14:58 4500 DIRECTORS RD 4 AUTO CRASH
170922647841 9-22 14:58 6900 MERRILL RD 63 DISPUTE
170922647921 9-22 14:58 1000 CASSAT AVE 63 DISPUTE
170922647917 9-22 14:57 400 UNIVERSITY BLVD 4 AUTO CRASH
170922647926 9-22 14:55 4700 TOWN CROSSING DR 5582 HOLDING ONE FOR SHOPLIFTING
170922647930 9-22 14:55 2900 BROWARD RD 22 DOMESTIC
170922647911 9-22 14:54 10400 SAN JOSE BLVD 4 AUTO CRASH
170922647772 9-22 14:53 1700 S SAN PABLO RD 14C VANDALISM CONVEYANCE
170922647920 9-22 14:51 N I295 EXPWY AND BAYMEADOWS RD 96 ASSIST MOTORIST
170922647916 9-22 14:51 700 FERNWAY ST 6388 DISPUTE WITH ASSAULT
170922647919 9-22 14:51 E HAMPTON PARK BLVD AND BLACKSTONE RIVER DR 12 RECKLESS DRIVER
170922647914 9-22 14:51 1400 N MC DUFF AVE 56 JUVENILE COMPLAINT
170922647910 9-22 14:50 BELLE RIVE BLVD AND SOUTHSIDE BLVD 4 AUTO CRASH
170922647896 9-22 14:50 2100 W EDGEWOOD AVE 13 SUSPICIOUS PERSON
170922647912 9-22 14:50 N SR9B EXPWY AND N I295 EXPWY 4 AUTO CRASH
170922647913 9-22 14:49 S US 301 HWY AND NEW BRANDY BRANCH RD 4 AUTO CRASH
170922647901 9-22 14:47 1600 S SAN PABLO RD 9 THEFT
170922647878 9-22 14:47 1800 S LANE AVE 13 SUSPICIOUS PERSON
170922647707 9-22 14:47 8100 N SPRING LAKE RD 21R BURGLARY RESIDENCE
170922647866 9-22 14:46 10400 ATLANTIC BLVD 4 AUTO CRASH
170922647905 9-22 14:45 4300 DEERWOOD LAKE PKWY 3 HIT AND RUN CRASH
170922647892 9-22 14:45 1700 EL PRADO RD 63 DISPUTE
170922647868 9-22 14:44 MAYPORT RD AND SRA1A HWY 3 HIT AND RUN CRASH
170922647900 9-22 14:43 1700 INGLESIDE AVE 13 SUSPICIOUS PERSON
170922647895 9-22 14:42 1200 FAIRFAX ST 1050 TRAFFIC STOP
170922647893 9-22 14:41 N LIBERTY ST AND E STATE ST 13 SUSPICIOUS PERSON
170922647630 9-22 14:40 6900 103RD ST 63 DISPUTE
170922647885 9-22 14:40 W 14TH ST AND BARNETT ST 61 FIGHT
170922647870 9-22 14:39 9200 RIDGE BLVD 28 DELIVER MESSAGE
170922647887 9-22 14:38 6000 GATE PKWY 50 FOUND/ABANDONED PROPERTY
170922647882 9-22 14:38 7200 ARLINGTON EXPWY 76 ASSIST OTHER AGENCY
170922647839 9-22 14:37 1700 CASSAT AVE 79 OBSCENE / THREAT CALL OR LETTER
170922647883 9-22 14:37 E HAMPTON PARK BLVD AND BLACKSTONE RIVER DR 12 RECKLESS DRIVER
170922647877 9-22 14:35 WAMBOLT ST AND VICTORIA ST 63 DISPUTE
170922647875 9-22 14:34 7900 NEVADA ST 73 DRUG INVESTIGATION
170922647874 9-22 14:34 18TH/BLVD 13 SUSPICIOUS PERSON
170922647871 9-22 14:33 12500 N MAIN 1050 TRAFFIC STOP
170922647867 9-22 14:30 RICKER RD AND TOWNSEND RD 4 53 TRAFFIC CRASH PERSON INJURED
170922647865 9-22 14:30 4200 W MONCRIEF RD 56 JUVENILE COMPLAINT
170922647852 9-22 14:29 3200 STUART ST 16 ROAD OBSTRUCTION
170922647858 9-22 14:28 800 PRUDENTIAL DR 13 SUSPICIOUS PERSON
170922647855 9-22 14:27 12000 N MAIN ST 1050 TRAFFIC STOP
170922647851 9-22 14:27 8100 VILLAGE GATE CT 63 DISPUTE
170922647853 9-22 14:27 10200 LEM TURNER RD 1050 TRAFFIC STOP
170922647832 9-22 14:26 2300 BOULEVARD 37 UNVERIFIED 911 CALL
170922647829 9-22 14:25 103RD ST AND BLANDING BLVD 13 SUSPICIOUS PERSON
170922647847 9-22 14:25 E HAMPTON PARK BLVD AND BLACKSTONE RIVER DR 12 RECKLESS DRIVER
170922647845 9-22 14:24 E BEAVER ST AND N MARKET ST 13 SUSPICIOUS PERSON
170922647767 9-22 14:23 PARK ST AND RIVERSIDE PARK PL 91 TRAFFIC LIGHT/RR CROSSING MALFUNCTION
170922647833 9-22 14:19 500 STOCKTON ST 60 SUICIDE OR ATTEMPT
170922647815 9-22 14:19 COLLINS RD AND SHINDLER DR 4 AUTO CRASH
170922647831 9-22 14:18 7800 POCITA CT 7 DEAD PERSON
170922647715 9-22 14:18 4500 CLAIRMONT RD 14R VANDALISM RESIDENCE
170922647780 9-22 14:18 4500 LENOX AVE 79 OBSCENE / THREAT CALL OR LETTER
170922647830 9-22 14:18 1700 W 26TH ST 9T THEFT (TELESERVE)
170922647774 9-22 14:16 5700 TIMUQUANA RD 63 DISPUTE
170922647763 9-22 14:15 13900 MANDARIN OAKS LN 63 DISPUTE
170922647814 9-22 14:15 5900 POWERS AVE 4 53 TRAFFIC CRASH PERSON INJURED
170922647798 9-22 14:14 8200 WESTERN WAY CIR 63 DISPUTE
170922647587 9-22 14:13 2500 MAPLE STAND CT 21R BURGLARY RESIDENCE
170922647592 9-22 14:13 9300 103RD ST 63 DISPUTE
170922647819 9-22 14:12 3000 DUNN AVE 54 ILLEGALLY PARKED CAR
170922647750 9-22 14:12 9500 REGENCY SQUARE BLVD 63 DISPUTE
170922647810 9-22 14:10 N SR9B EXPWY AND N I295 EXPWY 4 53 TRAFFIC CRASH PERSON INJURED
170922647812 9-22 14:10 2000 YULEE ST 14CJ VANDALISM CONVEYANCE JUST OCCURRED
170922647808 9-22 14:07 900 ROGERO RD 76 ASSIST OTHER AGENCY
170922647783 9-22 14:06 S RENAULT DR AND W TRIUMPH LN 13 SUSPICIOUS PERSON
170922647801 9-22 14:05 4200 PABLO PROFESSIONAL CT 68T CON GAME/FLIM FLAM TELESERVE
170922647806 9-22 14:04 ACORN ST AND W STATE ST 1050 TRAFFIC STOP
170922647796 9-22 14:04 6400 CORDIAL DR 11 ABANDONED VEHICLE
170922647759 9-22 14:04 5600 ROOSEVELT BLVD 4 AUTO CRASH
170922647761 9-22 14:03 3700 UNIVERSITY CLUB BLVD 9T THEFT (TELESERVE)
170922647562 9-22 14:03 7600 GREGORY DR 2288 DOMESTIC DISPUTE WITH/ASSAULT
170922647803 9-22 14:03 ABESS BLVD AND GIRVIN RD 96 ASSIST MOTORIST
170922647752 9-22 14:02 8500 SHUTER CT 95ID IDENTITY THEFT
170922647751 9-22 14:02 1700 W HUDDERFIELD CIR 95IDT IDENTITY THEFT TELESERVE
170922647697 9-22 14:02 6800 FIRESTONE RD 9J THEFT JUST OCCURRED
170922647800 9-22 14:02 SOUTHSIDE CONNECTOR BLVD AND MERRILL RD 1050 TRAFFIC STOP
170922647786 9-22 14:01 1200 CASSAT AVE 63 DISPUTE
170922647794 9-22 14:00 100 ZOO 1050 TRAFFIC STOP
170922647765 9-22 13:59 SAN JUAN AVE AND CASSAT AVE 4 AUTO CRASH
170922647784 9-22 13:57 2000 OAK GLEN RD 54 ILLEGALLY PARKED CAR
170922647665 9-22 13:57 8000 W GATE PKWY 63 DISPUTE
170922647782 9-22 13:56 500 W 1ST ST 63 DISPUTE
170922647755 9-22 13:55 7000 COLLINS RD 5582 HOLDING ONE FOR SHOPLIFTING
170922647704 9-22 13:55 13900 OLD ST AUGUSTINE RD 95ID IDENTITY THEFT
170922647775 9-22 13:54 100 E 6TH ST 27 MENTALLY ILL PERSON
170922647756 9-22 13:53 8200 NEVADA ST 33 DISCHARGING OF FIREARM
170922647741 9-22 13:52 3600 S ST JOHNS BLUFF RD 95IDT IDENTITY THEFT TELESERVE
170922647770 9-22 13:51 10000 SAN JOSE BLVD 4 AUTO CRASH
170922647768 9-22 13:50 500 E BAY ST 95 FRAUD/FORGED (CHECK, ID, RX)
170922647693 9-22 13:49 N PEARL ST AND TALLULAH AVE 13 SUSPICIOUS PERSON
170922647762 9-22 13:46 3000 SOUTHSIDE BLVD 1050 TRAFFIC STOP
170922647757 9-22 13:44 SAN PABLO/ATL 1050 TRAFFIC STOP
170922647753 9-22 13:44 600 CASSAT AVE 1066 CANCEL
170922647745 9-22 13:43 7200 E RHODE ISLAND DR 22 DOMESTIC
170922647644 9-22 13:43 7100 E CUMBRIA BLVD 95 FRAUD/FORGED (CHECK, ID, RX)
170922647754 9-22 13:42 SAN JOSE BLVD AND KORI RD 4 AUTO CRASH
170922647749 9-22 13:41 2100 COMMONWEALTH AVE 35 OFFICER NEEDS ASSIST
170922647685 9-22 13:39 9500 ARLINGTON EXPWY 95 FRAUD/FORGED (CHECK, ID, RX)
170922647731 9-22 13:38 1200 LEE RD 13 SUSPICIOUS PERSON
170922647652 9-22 13:38 500 W 65TH ST 22 DOMESTIC
170922647737 9-22 13:38 1700 AMERICAN HERITAGE LIFE DR 37 UNVERIFIED 911 CALL
170922647719 9-22 13:37 2700 STARDUST CT 22 DOMESTIC
170922647739 9-22 13:37 100 HOGAN ST 9 THEFT
170922647708 9-22 13:37 VILLAGE GREEN CT AND N VILLAGE GREEN DR 13 SUSPICIOUS PERSON
170922647738 9-22 13:37 9400 ARLINGTON EXPWY 1050 TRAFFIC STOP
170922647730 9-22 13:37 ATLANTIC BLVD AND CENTURY 21 DR 3T HIT AND RUN CRASH - TELESERVE
170922647718 9-22 13:36 500 MONTY LN 86T LOST PROPERTY (TELESERVE)
170922647712 9-22 13:36 4700 YACHT CT 95 FRAUD/FORGED (CHECK, ID, RX)
170922647702 9-22 13:36 W AUTREY AVE AND DOMPIERRE DR 33 DISCHARGING OF FIREARM
170922647725 9-22 13:35 500 W 1ST ST 63 DISPUTE
170922647674 9-22 13:35 3300 RIBAULT SCENIC DR 9T THEFT (TELESERVE)
170922647733 9-22 13:35 1200 N PEARL ST 27 MENTALLY ILL PERSON
170922647735 9-22 13:34 295/BLNDING 1050 TRAFFIC STOP
170922647706 9-22 13:33 6400 ATLANTIC BLVD 12 RECKLESS DRIVER
170922647727 9-22 13:32 400 W 1ST ST 13 SUSPICIOUS PERSON
170922647728 9-22 13:32 ACOSTA 96 ASSIST MOTORIST
170922647726 9-22 13:31 3600 CROWN POINT RD 9 THEFT
170922647717 9-22 13:31 9000 LEM TURNER RD 9T THEFT (TELESERVE)
170922647695 9-22 13:30 100 N BOWLAN ST 13 SUSPICIOUS PERSON
170922647724 9-22 13:30 YULEE ST AND LINE ST 33 DISCHARGING OF FIREARM
170922647572 9-22 13:28 10200 W BEAVER ST 2 IMPAIRED/INTOXICATED
170922647517 9-22 13:28 6800 NORMANDY BLVD 2 IMPAIRED/INTOXICATED
170922647650 9-22 13:27 100 E 32ND ST 63 DISPUTE
170922647648 9-22 13:25 100 E 32ND ST 19 ANIMAL INVESTIGATION
170922647700 9-22 13:23 PHILIPS HWY AND BAYMEADOWS RD 4 AUTO CRASH
170922647701 9-22 13:23 1100 MORNING LIGHT RD 21C BURGLARY CONVEYANCE
170922647709 9-22 13:23 295/BLANDING 1050 TRAFFIC STOP
170922647703 9-22 13:22 2400 GAYLAND RD 63 DISPUTE
170922647640 9-22 13:18 3600 E EVE DR 2288 DOMESTIC DISPUTE WITH/ASSAULT
170922647635 9-22 13:18 4200 SOUTHSIDE BLVD 63 DISPUTE
170922647699 9-22 13:17 200 W UNION ST 13 SUSPICIOUS PERSON
170922647696 9-22 13:15 100 W UNION ST 17 PERSON DOWN OR SICK
170922647692 9-22 13:14 4800 BIG ISLAND DR 4 AUTO CRASH
170922647683 9-22 13:14 11300 SAN JOSE BLVD 4 AUTO CRASH
170922647690 9-22 13:13 3700 SOUTHSIDE BLVD 4 AUTO CRASH
170922647581 9-22 13:12 6700 N SOUTHPOINT DR 63 DISPUTE
170922647688 9-22 13:12 8100 W BAYMEADOWS WAY 37 UNVERIFIED 911 CALL
170922647655 9-22 13:11 7000 103RD ST 76 ASSIST OTHER AGENCY
170922647656 9-22 13:10 1200 LAKE SHORE BLVD 21RJ BURGLARY RESIDENCE JUST OCCURRED
170922647539 9-22 13:09 11300 BEACH BLVD 63 DISPUTE
170922647631 9-22 13:08 2500 W BEAVER ST 63 DISPUTE
170922647667 9-22 13:08 CRESTWOOD ST AND ORLANDO ST 11 ABANDONED VEHICLE
170922647651 9-22 13:05 200 PECAN ST 28 DELIVER MESSAGE
170922647666 9-22 13:04 J TURNER BUTLER BLVD AND BELFORT RD 16 ROAD OBSTRUCTION
170922647676 9-22 13:04 8200 ARGYLE 1050 TRAFFIC STOP
170922647663 9-22 13:03 N I95 EXPWY AND N I295 EXPWY 54 ILLEGALLY PARKED CAR
170922647673 9-22 13:03 200 N ST JOHNS BLUFF RD 3 HIT AND RUN CRASH
170922647636 9-22 13:02 9900 SOUTHSIDE BLVD 95IDT IDENTITY THEFT TELESERVE
170922647659 9-22 12:59 800 N PEARL ST 63 DISPUTE
170922647661 9-22 12:58 10400 AVENUES WALK BLVD 13 SUSPICIOUS PERSON
170922647660 9-22 12:58 3400 SOUTHSIDE BLVD 4 AUTO CRASH
170922647645 9-22 12:57 3700 E HERMITAGE RD 95ID IDENTITY THEFT
170922647565 9-22 12:57 7400 PHILIPS HWY 63 DISPUTE
170922647649 9-22 12:55 200 E 7TH ST 63 DISPUTE
170922647654 9-22 12:55 1600 KINGS RD 9 THEFT
170922647621 9-22 12:54 10600 ATLANTIC BLVD 1066 CANCEL
170922647626 9-22 12:53 13200 W MOBY DICK DR 10 VEHICLE THEFT
170922647647 9-22 12:53 11800 ATLANTIC BLVD 9J THEFT JUST OCCURRED
170922647584 9-22 12:52 11200 OLD ST AUGUSTINE RD 9 THEFT
170922647646 9-22 12:51 8200 ARGYLE 1050 TRAFFIC STOP
170922647637 9-22 12:51 5100 SUNBEAM RD 88J ASSAULT JUST OCCURRED
170922647641 9-22 12:50 11000 HARTS RD 13 SUSPICIOUS PERSON
170922647599 9-22 12:46 1800 W 6TH ST 21RP BURGLARY RESIDENCE IN PROGRESS
170922647633 9-22 12:45 3300 HARTLEY RD 3 HIT AND RUN CRASH
170922647617 9-22 12:45 400 PECAN PARK RD 9T THEFT (TELESERVE)
170922647634 9-22 12:45 1600 W 5TH ST 54 ILLEGALLY PARKED CAR
170922647607 9-22 12:44 1200 CASSAT AVE 3 HIT AND RUN CRASH
170922647624 9-22 12:43 4300 DEERWOOD LAKE PKWY 3 HIT AND RUN CRASH
170922647593 9-22 12:43 5800 SAN JUAN AVE 87 DAMAGED PROPERTY
170922647613 9-22 12:43 ARGYLE FOREST BLVD AND BLANDING BLVD 4 AUTO CRASH
170922647629 9-22 12:43 11600 ATLANTIC BLVD 1050 TRAFFIC STOP
170922647627 9-22 12:43 4200 S UNIVERSITY BLVD 76 ASSIST OTHER AGENCY
170922647619 9-22 12:43 1500 E 24TH ST 63 DISPUTE
170922647628 9-22 12:41 12000 CANCUN DR 13 SUSPICIOUS PERSON
170922647598 9-22 12:41 103RD ST AND HILLMAN DR 13 SUSPICIOUS PERSON
170922647623 9-22 12:38 9700 PHILIPS HWY 38 TRAFFIC ASSIGNMENT
170922647605 9-22 12:36 2800 SEARCHWOOD DR 95IDT IDENTITY THEFT TELESERVE
170922647585 9-22 12:35 6300 103RD ST 9J THEFT JUST OCCURRED
170922647612 9-22 12:35 5000 ATTLEBORO ST 76 ASSIST OTHER AGENCY
170922647618 9-22 12:35 500 BUSCH 1050 TRAFFIC STOP
170922647610 9-22 12:35 SOUTHPOINT PKWY AND SALISBURY RD 16 ROAD OBSTRUCTION
170922647616 9-22 12:34 LEM TURNER RD AND WAINWRIGHT DR 4 AUTO CRASH
170922647615 9-22 12:33 2500 COACHMAN LAKES DR 54 ILLEGALLY PARKED CAR
170922647611 9-22 12:33 1000 W 21ST ST 18 PERSON SHOT
170922647609 9-22 12:32 2000 HUNTSFORD RD 54 ILLEGALLY PARKED CAR
170922647604 9-22 12:32 CROSS AVE AND SUNSET DR 4 AUTO CRASH
170922647608 9-22 12:31 13800 ST AUGUSTINE 63 DISPUTE
170922647347 9-22 12:31 6700 NORMANDY BLVD 3 HIT AND RUN CRASH
170922647602 9-22 12:29 12000 DERRIS CT 54 ILLEGALLY PARKED CAR
170922647597 9-22 12:29 5500 W UNIVERSITY BLVD 4 AUTO CRASH
170922647583 9-22 12:28 5600 CAGLE RD 63 DISPUTE
170922647500 9-22 12:28 7400 STEVENTON WAY 22 DOMESTIC
170922647594 9-22 12:27 N I295 EXPWY AND GATE PKWY 4 AUTO CRASH
170922647591 9-22 12:27 11100 W KEY LARGO DR 8 MISSING PERSON
170922647563 9-22 12:26 10600 BISCAYNE BLVD 14CT VANDALISM CONVEYANCE TELESERVE
170922647589 9-22 12:25 3800 EMERSON ST 13 SUSPICIOUS PERSON
170922647520 9-22 12:25 4000 TYNDALE DR 4 AUTO CRASH
170922647588 9-22 12:25 2200 S KERNAN BLVD 76 ASSIST OTHER AGENCY
170922647580 9-22 12:25 8600 E BAYMEADOWS RD 3 HIT AND RUN CRASH
170922647493 9-22 12:23 100 W MAYALL DR 2288 DOMESTIC DISPUTE WITH/ASSAULT
170922647556 9-22 12:23 1000 SUPERIOR ST 50 FOUND/ABANDONED PROPERTY
170922647546 9-22 12:21 ROSETREE DR AND SPRING PARK RD 13 SUSPICIOUS PERSON
170922647567 9-22 12:21 1000 KING ST 1066 CANCEL
170922647489 9-22 12:20 MAY ST AND RIVERSIDE AVE 4 AUTO CRASH
170922647577 9-22 12:19 HERSCHEL ST AND S EDGEWOOD AVE 91 TRAFFIC LIGHT/RR CROSSING MALFUNCTION
170922647575 9-22 12:16 10600 OLD ST AUGUSTINE RD 37 UNVERIFIED 911 CALL
170922647545 9-22 12:15 6300 RICHARDSON RD 88 ASSAULT
170922647558 9-22 12:15 W UNION ST AND N DAVIS ST 3 HIT AND RUN CRASH
170922647573 9-22 12:15 8100 GENET DR 60 SUICIDE OR ATTEMPT
170922647570 9-22 12:14 SOUTHSIDE BLVD AND DEERWOOD PARK BLVD 4 AUTO CRASH
170922647574 9-22 12:13 500 E MONROE ST 13 SUSPICIOUS PERSON
170922647505 9-22 12:13 NORMEXIT S 301 RP AND S US 301 HWY 4 AUTO CRASH
170922647557 9-22 12:12 ARGYLE FOREST BLVD AND CHESWICK OAK AVE 4 AUTO CRASH
170922647568 9-22 12:10 W 3RD ST AND N BROAD ST 60 SUICIDE OR ATTEMPT
170922647456 9-22 12:09 1100 W 12TH ST 63 DISPUTE
170922647525 9-22 12:09 BEACH BLVD AND TAMAYA BLVD 16 ROAD OBSTRUCTION
170922647566 9-22 12:08 SS CON/MERRILL 96 ASSIST MOTORIST
170922647536 9-22 12:08 5800 OLD TIMUQUANA RD 0 99 ARMED WARRANT CAPIAS
170922647564 9-22 12:07 SUNBEAM RD AND PHILIPS HWY 1050 TRAFFIC STOP
170922647513 9-22 12:06 5100 S DOSTIE DR 63 DISPUTE
170922647509 9-22 12:06 8900 ATLANTIC BLVD 63 DISPUTE
170922647553 9-22 12:05 N I295 EXPWY AND S I95 EXPWY 16 ROAD OBSTRUCTION
170922647515 9-22 12:05 6300 W MERCER CIR 13 SUSPICIOUS PERSON
170922647518 9-22 12:05 11400 HALETHORPE DR 1066 CANCEL
170922647547 9-22 12:04 6400 E SABLE WOODS DR 68T CON GAME/FLIM FLAM TELESERVE
170922647453 9-22 12:04 5800 OLD TIMUQUANA RD 63 DISPUTE
170922647554 9-22 12:03 ARLINGWOOD AVE AND S BROOKMONT AVE 58 BOMB INVESTIGATION
170922647494 9-22 12:03 NORMANDY BLVD AND FOURAKER RD 16 ROAD OBSTRUCTION
170922647555 9-22 12:02 1200 BROAD ST 12 RECKLESS DRIVER
170922647541 9-22 12:02 S I295 EXPWY AND GATE PKWY 16 ROAD OBSTRUCTION
170922647534 9-22 12:01 N I95 EXPWY AND BAYMEADOWS RD 4 AUTO CRASH
170922647439 9-22 12:01 4800 PARK ST 63 DISPUTE
170922647550 9-22 12:00 1100 DUNN AVE 63 DISPUTE
170922647549 9-22 12:00 2400 YANKEE CLIPPER DR 76 ASSIST OTHER AGENCY
170922647527 9-22 12:00 1000 COVE LANDING DR 86T LOST PROPERTY (TELESERVE)
170922647542 9-22 12:00 900 CESERY BLVD 13 SUSPICIOUS PERSON
170922647422 9-22 11:58 1200 CASSAT AVE 63 DISPUTE
170922647499 9-22 11:56 300 N BOWLAN ST 76 ASSIST OTHER AGENCY
170922647507 9-22 11:55 2000 N 3RD ST 76 ASSIST OTHER AGENCY
170922647528 9-22 11:54 MERRILL RD AND JANE ST 4 AUTO CRASH
170922647535 9-22 11:54 7000 SAN JOSE BLVD 1050 TRAFFIC STOP
170922647337 9-22 11:53 1000 SISTRUNK ST 13 SUSPICIOUS PERSON
170922647514 9-22 11:52 3300 E CANCUN DR 13 SUSPICIOUS PERSON
170922647526 9-22 11:52 S I295 EXPWY AND J TURNER BUTLER BLVD 4 AUTO CRASH
170922647529 9-22 11:52 N I295 EXPWY AND N MAIN ST 1066 CANCEL
170922647519 9-22 11:51 2700 PHOENIX AVE 63 DISPUTE
170922647510 9-22 11:49 10900 ATLANTIC BLVD 4 AUTO CRASH
170922647472 9-22 11:49 6400 NEW KINGS RD 2288 DOMESTIC DISPUTE WITH/ASSAULT
170922647524 9-22 11:49 W 6TH ST AND BOULEVARD 73 DRUG INVESTIGATION
170922647429 9-22 11:44 4500 N DAVIS ST 9T THEFT (TELESERVE)
170922647502 9-22 11:44 4500 LEXINGTON AVE 60 SUICIDE OR ATTEMPT
170922647508 9-22 11:43 6200 PINE BLUFF DR 1066 CANCEL
170922647483 9-22 11:42 1000 MARGARET ST 13 SUSPICIOUS PERSON
170922647506 9-22 11:42 1100 N MARKET ST 76 ASSIST OTHER AGENCY
170922647476 9-22 11:41 2600 W 1ST ST 0 22 DOMESTIC DISTURBANCE W/WEAPON
170922647495 9-22 11:40 N BROAD ST AND W ADAMS ST 27 MENTALLY ILL PERSON
170922647503 9-22 11:40 5800 EDENFIELD RD 4 AUTO CRASH
170922647501 9-22 11:38 3900 ROOSEVELT BLVD 88 ASSAULT
170922647498 9-22 11:38 10700 PLUM HOLLOW DR 63 DISPUTE
170922647490 9-22 11:37 3700 EMERSON ST 63 DISPUTE
170922647367 9-22 11:37 4900 GATE PY 10 VEHICLE THEFT
170922647477 9-22 11:37 2000 E HOVINGTON CIR 22 DOMESTIC
170922647497 9-22 11:35 SOUTHSIDE BLVD AND BRADLEY RD 1050 TRAFFIC STOP
170922647488 9-22 11:33 N I295 EXPWY AND GATE PKWY 4 63 CRASH INVOLVING DISPUTE
170922647492 9-22 11:33 6200 WOODMAN DR 60 SUICIDE OR ATTEMPT
170922647491 9-22 11:30 14000 HOLLINGS ST 63 DISPUTE
170922647486 9-22 11:28 100 W UNION ST 76 ASSIST OTHER AGENCY
170922647480 9-22 11:28 SUNBEAM RD AND PHILIPS HWY 16 ROAD OBSTRUCTION
170922647482 9-22 11:28 MERRILL RD AND JANE ST 4 AUTO CRASH
170922647481 9-22 11:26 5700 118TH ST 21RP BURGLARY RESIDENCE IN PROGRESS
170922647455 9-22 11:26 1500 W 1ST ST 13 SUSPICIOUS PERSON
170922647370 9-22 11:24 6100 WILSON BLVD 63 DISPUTE
170922647457 9-22 11:21 2500 MARTHA ST 4 AUTO CRASH
170922647302 9-22 11:21 7800 E BLACKSTONE RIVER DR 86 LOST PROPERTY
170922647467 9-22 11:20 S I95 EXPWY AND J TURNER BUTLER BLVD 1050 TRAFFIC STOP
170922647466 9-22 11:20 800 HAMMOND BLVD 4 53 TRAFFIC CRASH PERSON INJURED
170922647460 9-22 11:20 1900 S COLLEGE CIR 76 ASSIST OTHER AGENCY
170922647448 9-22 11:18 3000 S MERCURY RD 4 AUTO CRASH
170922647459 9-22 11:18 7800 PHILIPS HWY 38 TRAFFIC ASSIGNMENT
170922647452 9-22 11:16 10000 SKINNER LAKE DR 60 SUICIDE OR ATTEMPT
170922647390 9-22 11:16 2900 SELMA ST 21R BURGLARY RESIDENCE
170922647374 9-22 11:13 700 FERNWAY ST 88J ASSAULT JUST OCCURRED
170922647444 9-22 11:11 5200 NEW WORLD AVE 38 TRAFFIC ASSIGNMENT
170922647404 9-22 11:11 6800 103RD ST 0 63 ARMED DISPUTE
170922647438 9-22 11:11 3000 LEON RD 1066 CANCEL
170922647440 9-22 11:10 6100 POWERS AVE 8 27 MISSING MENTALLY ILL
170922647430 9-22 11:08 1500 HUBBARD ST 76 ASSIST OTHER AGENCY
170922647230 9-22 11:07 5600 BOWDEN RD 9 THEFT
170922647354 9-22 11:07 7900 MARINER ST 21R BURGLARY RESIDENCE
170922647360 9-22 11:06 2500 EDISON AVE 63 DISPUTE
170922647425 9-22 11:03 2000 WAGES WAY 76 ASSIST OTHER AGENCY
170922647134 9-22 11:01 1100 S LANE AVE 10 VEHICLE THEFT
170922647419 9-22 11:00 13100 CITY STATION DR 95 FRAUD/FORGED (CHECK, ID, RX)